GFSNGP_700_temp_045.txt.gz
Temp
6 6 6 6 6 6 5 5 5 6 6 6 6 6 6 6 6 6 5 5 4 4 4 3 3 2 2 1 1 0 0 -0 -1 -1 -2 -3 -3 -3 -3 -4 -4 -4 -5 -7
6 6 6 6 6 6 5 5 5 5 6 6 6 6 6 6 6 6 5 5 4 4 3 3 2 2 1 1 0 0 -1 -1 -1 -3 -2 -3 -3 -4 -4 -4 -4 -7 -8 -8
5 5 5 4 5 6 5 5 6 5 6 6 6 5 5 5 5 5 4 4 4 3 3 2 2 2 1 1 -0 -1 -1 -1 -2 -3 -3 -3 -4 -4 -4 -6 -7 -7 -7 -8
5 5 -1 5 5 5 5 5 5 5 5 5 5 5 5 4 4 4 4 3 3 2 1 1 1 1 0 -0 -1 -1 -2 -2 -3 -3 -3 -4 -4 -4 -7 -7 -7 -6 -8 -9
4 4 4 4 4 4 4 4 5 5 5 4 4 4 4 4 3 3 2 2 1 1 0 -0 -0 -0 -0 -1 -1 -2 -3 -3 -3 -3 -4 -4 -5 -7 -6 -7 -7 -7 -9 -9
3 3 -2 4 4 4 4 4 4 3 4 4 3 3 3 2 2 2 1 1 0 0 -0 -0 -0 -1 -1 -2 -3 -3 -4 -4 -4 -4 -4 -7 -6 -6 -7 -8 -8 -8 -9 -10
3 3 3 4 4 4 3 4 4 3 3 3 3 2 2 2 2 1 1 0 -0 -0 -1 -1 -1 -2 -3 -4 -5 -5 -5 -4 -6 -6 -6 -6 -7 -7 -7 -8 -8 -9 -9 -10
2 2 2 3 3 3 4 4 4 3 3 2 2 2 2 2 1 0 0 -0 -0 -1 -2 -3 -4 -5 -5 -5 -5 -5 -5 -5 -6 -6 -6 -7 -7 -7 -8 -9 -9 -9 -10 -10
3 3 3 3 3 3 4 4 3 3 2 2 1 1 1 1 0 -0 -1 -1 -2 -3 -4 -5 -5 -5 -6 -6 -6 -6 -6 -6 -7 -7 -7 -8 -8 -9 -9 -9 -10 -10 -11 -11
3 3 3 3 3 3 3 3 2 2 2 1 1 1 0 -0 -1 -1 -2 -2 -3 -5 -5 -5 -5 -6 -7 -7 -7 -7 -7 -8 -8 -8 -8 -9 -9 -9 -10 -10 -11 -11 -12 -12
3 3 3 3 2 2 2 2 2 1 1 1 0 -0 -1 -1 -1 -2 -2 -3 -5 -5 -6 -6 -7 -7 -7 -7 -7 -8 -8 -9 -9 -9 -9 -9 -10 -10 -10 -11 -12 -12 -12 -13
4 4 3 3 2 2 2 1 1 1 0 -0 -0 -1 -1 -1 -2 -2 -3 -4 -5 -6 -6 -6 -7 -7 -8 -8 -8 -9 -9 -9 -9 -9 -9 -9 -10 -9 -10 -11 -11 -12 -13 -15
3 3 2 2 2 2 1 1 0 0 -0 -1 -1 -1 -2 -2 -3 -3 -4 -5 -6 -6 -7 -8 -8 -8 -8 -9 -9 -9 -9 -9 -9 -10 -10 -10 -11 -11 -11 -11 -12 -12 -13 -14
3 2 2 2 1 1 1 0 -0 -1 -1 -1 -2 -2 -3 -3 -4 -5 -5 -6 -7 -7 -8 -8 -8 -9 -9 -9 -9 -10 -10 -10 -10 -11 -11 -11 -12 -12 -13 -13 -13 -13 -14 -15
2 2 2 1 1 1 0 -0 -0 -1 -1 -2 -3 -3 -4 -4 -5 -6 -6 -7 -8 -8 -9 -9 -9 -9 -10 -10 -10 -10 -11 -11 -11 -11 -12 -12 -13 -13 -14 -15 -15 -16 -16 -16
2 2 1 1 1 0 -0 -1 -1 -2 -2 -3 -4 -4 -5 -6 -6 -7 -8 -8 -8 -9 -9 -10 -10 -10 -10 -11 -11 -11 -11 -11 -12 -12 -12 -13 -14 -15 -15 -16 -16 -17 -17 -17
2 1 1 1 0 -0 -1 -2 -2 -3 -4 -5 -5 -6 -7 -7 -8 -8 -8 -9 -9 -10 -10 -10 -11 -11 -11 -11 -11 -11 -12 -12 -12 -13 -14 -15 -16 -16 -17 -17 -17 -17 -18 -19
1 1 0 -1 -1 -2 -2 -3 -4 -5 -6 -6 -7 -8 -8 -9 -9 -9 -9 -10 -10 -11 -11 -11 -11 -12 -12 -12 -12 -12 -12 -13 -13 -14 -15 -16 -17 -17 -18 -18 -19 -19 -20 -20
0 -1 -2 -2 -2 -3 -4 -5 -5 -6 -7 -8 -9 -9 -10 -11 -10 -10 -11 -11 -11 -11 -12 -12 -12 -12 -12 -12 -12 -13 -13 -14 -15 -16 -17 -17 -18 -19 -19 -20 -20 -20 -21 -22
-2 -3 -3 -3 -4 -5 -6 -6 -7 -8 -9 -9 -10 -11 -12 -11 -11 -11 -12 -12 -12 -12 -12 -13 -13 -12 -13 -13 -13 -14 -14 -15 -16 -17 -18 -18 -19 -20 -21 -21 -21 -21 -22 -22
-4 -5 -5 -5 -6 -7 -7 -8 -9 -9 -9 -10 -11 -12 -12 -12 -12 -12 -12 -13 -13 -13 -13 -13 -13 -13 -13 -14 -14 -15 -16 -17 -17 -18 -19 -19 -20 -21 -21 -21 -22 -22 -23 -23
-6 -6 -6 -7 -8 -8 -9 -9 -9 -10 -11 -12 -12 -12 -12 -12 -13 -13 -13 -13 -14 -14 -13 -13 -13 -14 -14 -14 -15 -16 -17 -18 -18 -19 -20 -21 -21 -21 -21 -21 -22 -22 -23 -23
-7 -7 -8 -9 -9 -9 -9 -9 -10 -11 -12 -13 -12 -13 -13 -13 -14 -14 -14 -14 -14 -14 -14 -14 -14 -14 -15 -16 -16 -17 -18 -19 -19 -20 -21 -21 -21 -21 -22 -22 -22 -22 -22 -23
-8 -8 -9 -9 -9 -9 -10 -11 -11 -13 -13 -13 -13 -14 -14 -14 -14 -14 -14 -14 -14 -14 -14 -15 -15 -15 -16 -17 -18 -18 -19 -20 -20 -21 -22 -22 -22 -22 -22 -22 -22 -22 -22 -22
-9 -10 -10 -10 -10 -11 -11 -12 -13 -13 -13 -14 -14 -14 -14 -15 -15 -15 -15 -15 -15 -15 -15 -15 -16 -16 -17 -18 -19 -19 -20 -20 -21 -22 -22 -22 -22 -22 -22 -22 -22 -22 -22 -23
-10 -10 -10 -11 -11 -12 -12 -13 -13 -14 -14 -14 -14 -15 -15 -15 -15 -15 -15 -15 -15 -15 -16 -16 -17 -18 -18 -19 -20 -20 -21 -21 -22 -22 -22 -22 -22 -22 -23 -23 -23 -23 -23 -23
-11 -11 -12 -12 -12 -13 -13 -13 -14 -14 -14 -14 -15 -15 -15 -15 -16 -16 -16 -16 -16 -16 -17 -18 -18 -19 -19 -20 -20 -21 -21 -22 -22 -22 -23 -23 -23 -23 -23 -23 -23 -23 -23 -23

GFSNGP_700_temp_048.txt.gz
Temp
6 6 6 6 6 6 6 6 5 6 5 6 6 6 6 6 6 6 6 5 5 5 4 3 3 3 3 2 2 1 1 0 0 -0 -1 -1 -2 -3 -3 -4 -3 -4 -4 -5
6 6 6 6 6 5 5 5 5 5 5 5 6 6 6 6 6 6 6 5 5 4 4 4 3 3 2 2 1 1 0 0 -0 -1 -1 -2 -4 -4 -3 -4 -3 -5 -6 -7
6 6 5 5 5 6 6 5 5 5 5 5 5 5 5 6 5 5 5 4 4 4 3 3 3 2 2 1 1 1 0 0 -1 -2 -3 -4 -3 -4 -3 -4 -4 -7 -7 -7
5 4 -0 5 5 5 5 5 5 5 5 5 5 5 5 5 5 4 4 3 3 3 3 3 2 1 1 0 -0 -0 -1 -2 -3 -4 -4 -3 -3 -3 -4 -5 -7 -6 -7 -7
5 4 5 4 5 5 5 5 4 4 4 4 4 4 4 4 4 3 3 3 3 2 2 1 0 -0 -0 -1 -1 -2 -3 -3 -4 -4 -4 -4 -4 -4 -6 -6 -7 -7 -8 -8
4 3 -2 5 5 4 4 4 4 4 4 4 4 3 3 3 3 3 2 2 2 1 1 0 -0 -1 -1 -1 -2 -3 -4 -5 -5 -5 -4 -5 -6 -6 -6 -7 -7 -8 -8 -9
5 4 4 4 4 4 3 4 4 4 4 3 3 3 3 2 2 2 2 1 1 0 -0 -1 -1 -1 -2 -2 -4 -5 -5 -6 -6 -6 -6 -6 -6 -7 -7 -8 -8 -8 -8 -9
3 2 2 4 3 3 4 4 4 4 4 3 2 2 2 2 1 1 1 1 0 -0 -1 -1 -1 -2 -3 -5 -6 -6 -6 -7 -6 -6 -6 -7 -7 -8 -8 -8 -8 -8 -9 -9
4 4 5 4 4 3 3 3 3 3 3 3 2 2 1 1 1 1 0 -0 -0 -1 -1 -2 -3 -4 -5 -6 -6 -7 -7 -7 -7 -7 -8 -8 -8 -8 -8 -9 -9 -9 -9 -10
4 4 4 4 3 3 3 3 2 2 2 2 1 1 1 1 0 -0 -0 -1 -1 -2 -3 -4 -5 -5 -5 -7 -7 -7 -7 -7 -8 -8 -8 -9 -9 -9 -9 -9 -10 -10 -10 -11
4 4 4 4 3 3 3 3 2 2 2 1 1 1 0 -0 -0 -1 -1 -2 -2 -3 -4 -6 -6 -6 -7 -7 -7 -8 -8 -8 -8 -9 -9 -9 -9 -9 -10 -10 -11 -11 -11 -12
5 5 4 4 3 3 2 2 2 2 1 1 1 0 -0 -1 -1 -1 -2 -3 -3 -4 -6 -6 -6 -7 -7 -7 -8 -8 -8 -9 -9 -9 -9 -9 -9 -10 -10 -10 -11 -11 -12 -13
4 4 3 3 3 2 2 2 1 1 1 1 0 -0 -1 -1 -2 -2 -3 -4 -5 -5 -6 -6 -7 -7 -8 -8 -9 -9 -9 -9 -9 -10 -10 -10 -10 -10 -10 -10 -11 -12 -13 -14
4 3 3 3 2 2 1 1 1 1 0 0 -0 -1 -1 -2 -3 -3 -4 -5 -6 -6 -7 -7 -8 -8 -9 -9 -9 -10 -10 -10 -10 -10 -11 -11 -11 -11 -11 -11 -11 -12 -13 -15
3 3 2 2 2 2 1 1 1 0 -0 -0 -1 -2 -3 -3 -4 -5 -5 -6 -7 -7 -8 -8 -9 -9 -10 -10 -10 -10 -11 -11 -11 -11 -11 -11 -11 -12 -12 -13 -14 -15 -15 -15
3 3 2 2 1 1 1 0 0 -0 -1 -2 -2 -3 -4 -4 -5 -6 -7 -7 -8 -9 -9 -9 -10 -10 -10 -11 -11 -11 -11 -11 -11 -11 -12 -12 -12 -13 -14 -15 -16 -16 -17 -17
2 2 2 2 1 1 1 -0 -1 -2 -3 -3 -4 -4 -5 -5 -7 -8 -8 -9 -10 -10 -10 -10 -11 -11 -11 -11 -11 -12 -12 -12 -12 -12 -12 -13 -13 -14 -15 -16 -17 -18 -19 -20
2 1 1 0 0 -0 -1 -2 -2 -2 -3 -4 -5 -5 -6 -8 -9 -10 -10 -11 -12 -11 -11 -11 -11 -11 -12 -12 -12 -12 -12 -12 -13 -13 -13 -14 -15 -16 -17 -18 -19 -19 -20 -20
0 1 1 -0 -1 -2 -2 -2 -3 -4 -4 -5 -6 -7 -8 -10 -10 -10 -11 -13 -12 -11 -12 -12 -12 -12 -12 -13 -13 -13 -13 -13 -13 -14 -15 -16 -17 -17 -18 -19 -20 -20 -21 -21
-1 -1 -2 -3 -2 -2 -3 -4 -5 -5 -6 -7 -8 -9 -10 -10 -10 -12 -13 -12 -12 -12 -12 -13 -13 -13 -13 -13 -13 -13 -13 -14 -14 -15 -16 -17 -18 -19 -19 -20 -21 -21 -21 -21
-3 -3 -3 -3 -4 -4 -5 -6 -6 -7 -8 -9 -10 -10 -10 -11 -13 -13 -12 -12 -13 -13 -13 -13 -14 -14 -13 -13 -14 -14 -14 -15 -15 -16 -17 -18 -19 -19 -20 -21 -21 -21 -21 -21
-4 -4 -5 -6 -6 -7 -7 -8 -8 -9 -9 -10 -10 -11 -12 -13 -13 -13 -13 -13 -13 -13 -14 -14 -14 -14 -14 -14 -14 -15 -15 -16 -17 -17 -18 -19 -19 -20 -21 -21 -22 -22 -22 -22
-5 -6 -6 -7 -8 -8 -9 -9 -9 -10 -10 -10 -12 -12 -13 -13 -13 -13 -13 -13 -14 -14 -14 -15 -15 -15 -15 -15 -15 -16 -16 -17 -17 -18 -19 -20 -20 -21 -21 -22 -22 -22 -22 -22
-8 -8 -9 -9 -9 -9 -10 -10 -10 -10 -11 -12 -13 -13 -13 -13 -13 -14 -14 -14 -14 -15 -15 -15 -15 -15 -15 -16 -16 -17 -17 -18 -19 -19 -20 -21 -21 -22 -22 -22 -22 -22 -22 -22
-9 -10 -10 -10 -10 -10 -10 -11 -11 -12 -12 -13 -13 -14 -14 -14 -14 -15 -15 -15 -15 -15 -16 -16 -16 -16 -16 -16 -17 -18 -18 -19 -20 -20 -21 -21 -22 -22 -22 -22 -22 -22 -23 -23
-10 -10 -10 -11 -11 -11 -11 -11 -12 -12 -13 -13 -14 -14 -14 -15 -15 -15 -15 -16 -16 -16 -16 -16 -16 -16 -17 -17 -18 -19 -19 -20 -21 -21 -21 -22 -22 -23 -23 -23 -23 -23 -23 -23
-11 -11 -11 -11 -12 -12 -12 -13 -13 -13 -14 -14 -14 -15 -15 -15 -16 -16 -16 -17 -17 -17 -17 -17 -17 -17 -18 -19 -19 -20 -20 -21 -21 -22 -22 -22 -23 -23 -23 -23 -23 -23 -23 -23

GFSNGP_700_temp_051.txt.gz
Temp
6 6 6 6 6 6 6 6 5 6 6 6 6 6 6 6 6 6 6 5 5 5 5 5 4 3 3 3 3 2 2 1 1 0 0 -0 -1 -1 -2 -3 -4 -4 -4 -4
5 6 5 6 6 6 6 5 5 5 5 6 6 5 5 6 6 6 6 6 5 5 5 4 4 3 3 3 2 2 1 1 0 -0 -0 -1 -2 -3 -3 -4 -3 -4 -4 -5
5 5 5 4 5 6 6 6 5 5 5 5 5 5 5 5 5 5 6 5 5 5 4 4 4 3 3 3 2 1 1 0 0 -0 -1 -2 -3 -3 -3 -3 -3 -4 -6 -6
5 4 2 6 6 6 5 5 5 5 5 5 4 4 4 5 5 5 5 5 4 4 3 3 3 3 2 2 1 0 -0 -1 -1 -2 -3 -4 -4 -4 -5 -5 -5 -6 -6 -7
4 3 5 5 5 5 5 5 5 5 4 4 4 4 4 4 4 3 3 3 3 3 3 3 2 2 1 0 -0 -1 -1 -2 -2 -4 -5 -5 -5 -6 -5 -6 -6 -7 -7 -8
4 4 2 5 5 5 5 4 5 5 4 4 4 3 3 3 3 3 3 3 3 2 2 1 1 0 -0 -1 -1 -2 -2 -3 -4 -6 -6 -6 -7 -6 -7 -7 -7 -8 -8 -8
4 4 5 5 5 5 4 5 5 4 4 4 4 4 3 2 3 2 2 2 2 1 1 0 -0 -1 -1 -2 -2 -3 -4 -5 -6 -6 -6 -7 -7 -7 -7 -8 -8 -8 -8 -8
4 3 3 5 5 4 5 4 4 3 4 4 3 3 2 2 2 2 1 1 1 0 0 -0 -1 -2 -2 -3 -4 -5 -5 -6 -6 -7 -7 -7 -7 -7 -8 -8 -8 -8 -8 -9
5 5 5 5 5 5 4 4 3 3 3 3 3 2 2 2 1 1 1 0 0 -0 -1 -1 -2 -2 -3 -5 -6 -6 -6 -6 -7 -7 -7 -7 -8 -8 -8 -9 -9 -9 -9 -9
5 5 5 5 5 4 4 4 3 3 3 3 2 2 2 1 1 1 0 -0 -1 -1 -1 -2 -3 -4 -5 -7 -6 -6 -6 -7 -7 -8 -8 -8 -9 -9 -9 -10 -10 -10 -10 -10
4 4 4 4 5 4 4 3 3 2 2 2 2 1 1 1 0 -0 -0 -1 -1 -2 -3 -3 -5 -6 -7 -6 -6 -7 -7 -8 -8 -8 -8 -9 -9 -9 -10 -10 -10 -10 -10 -10
4 5 4 5 4 4 3 3 3 2 2 1 1 1 0 0 -0 -1 -1 -2 -2 -3 -3 -5 -6 -7 -6 -7 -8 -8 -8 -8 -9 -9 -9 -9 -10 -10 -10 -10 -11 -11 -11 -11
4 3 4 4 4 4 3 3 2 2 1 1 1 0 0 -0 -0 -1 -2 -2 -3 -4 -5 -6 -6 -7 -7 -8 -8 -9 -9 -9 -9 -9 -10 -10 -10 -10 -10 -11 -11 -11 -12 -12
2 3 3 3 3 3 2 2 2 1 1 1 0 0 -0 -0 -1 -2 -2 -3 -4 -5 -6 -6 -7 -8 -8 -9 -9 -9 -9 -10 -10 -10 -10 -11 -11 -11 -11 -11 -11 -12 -13 -14
2 2 3 3 3 2 2 2 1 1 1 1 0 -0 -0 -1 -2 -2 -3 -4 -4 -6 -7 -8 -8 -9 -9 -9 -10 -10 -10 -11 -11 -11 -11 -11 -11 -12 -12 -12 -12 -13 -14 -15
-0 1 2 2 3 2 2 2 1 1 1 0 -0 -1 -1 -2 -2 -3 -4 -5 -6 -7 -9 -9 -10 -10 -10 -10 -11 -11 -11 -11 -11 -12 -12 -12 -12 -12 -13 -13 -13 -14 -15 -16
1 1 2 2 2 2 2 1 1 0 0 -0 -1 -1 -2 -3 -3 -4 -5 -6 -8 -10 -10 -11 -11 -11 -11 -11 -11 -11 -12 -12 -12 -12 -12 -13 -13 -13 -13 -14 -15 -16 -17 -18
1 -0 1 1 1 1 1 1 0 -0 -0 -1 -3 -3 -3 -4 -5 -6 -7 -9 -11 -11 -11 -12 -12 -12 -12 -12 -12 -12 -12 -12 -13 -13 -13 -13 -14 -14 -15 -15 -17 -18 -18 -19
-0 0 0 0 -0 -0 -1 -2 -2 -2 -2 -2 -3 -4 -5 -5 -6 -8 -9 -11 -11 -11 -12 -12 -12 -12 -12 -12 -12 -13 -13 -13 -13 -14 -14 -14 -15 -15 -16 -17 -18 -19 -19 -20
-2 -2 -2 -2 -2 -2 -2 -2 -3 -3 -4 -5 -6 -6 -6 -7 -8 -10 -11 -11 -11 -13 -13 -12 -12 -12 -13 -13 -13 -13 -14 -14 -14 -14 -15 -15 -16 -17 -17 -18 -19 -20 -20 -21
-3 -3 -3 -3 -3 -3 -3 -4 -4 -5 -5 -6 -7 -8 -8 -9 -11 -11 -11 -12 -13 -13 -13 -13 -13 -13 -14 -14 -14 -14 -14 -14 -15 -15 -16 -16 -17 -18 -19 -19 -20 -21 -21 -21
-4 -4 -4 -4 -5 -5 -5 -6 -6 -7 -8 -8 -9 -10 -11 -12 -11 -12 -14 -14 -13 -13 -13 -14 -14 -14 -14 -15 -15 -15 -15 -15 -16 -16 -17 -17 -18 -19 -19 -20 -21 -21 -21 -21
-5 -5 -6 -7 -7 -7 -7 -7 -8 -9 -10 -10 -11 -12 -11 -12 -13 -14 -14 -14 -14 -14 -14 -14 -14 -15 -15 -15 -15 -15 -16 -16 -17 -17 -18 -18 -19 -20 -20 -21 -21 -21 -22 -22
-8 -8 -8 -9 -9 -9 -9 -9 -10 -10 -11 -11 -11 -11 -12 -13 -14 -14 -14 -14 -14 -15 -15 -15 -15 -16 -16 -16 -16 -16 -17 -17 -17 -18 -19 -19 -20 -20 -21 -21 -22 -22 -22 -22
-9 -9 -9 -10 -10 -10 -10 -10 -11 -11 -11 -11 -12 -12 -13 -14 -14 -14 -14 -14 -15 -15 -15 -16 -16 -16 -17 -17 -17 -17 -17 -18 -18 -19 -20 -20 -21 -21 -22 -22 -22 -22 -22 -22
-10 -10 -11 -11 -11 -11 -11 -12 -12 -12 -12 -12 -13 -14 -14 -15 -15 -15 -15 -15 -16 -16 -16 -17 -17 -17 -18 -18 -18 -18 -19 -19 -19 -20 -21 -21 -22 -22 -22 -23 -23 -23 -23 -23
-11 -11 -11 -11 -12 -12 -12 -13 -13 -13 -14 -14 -15 -15 -15 -16 -16 -16 -16 -17 -17 -17 -18 -18 -18 -18 -19 -19 -19 -19 -20 -20 -21 -21 -22 -22 -22 -22 -23 -23 -23 -23 -23 -23

GFSNGP_700_temp_057.txt.gz
Temp
6 7 7 8 7 7 7 7 7 7 7 8 7 7 7 7 6 6 6 6 5 5 6 6 5 5 6 5 5 5 4 4 3 3 2 2 2 1 0 -0 -0 -1 -2 -2
6 6 7 7 7 7 8 8 7 7 7 8 7 7 7 6 6 6 6 6 6 5 5 5 5 5 5 5 4 4 3 3 3 2 2 1 1 0 -1 -1 -1 -1 -2 -3
6 6 7 7 6 7 7 7 7 7 7 7 7 7 6 6 5 5 5 6 6 6 6 5 5 5 4 4 4 3 3 3 2 2 1 1 0 -0 -1 -1 -1 -2 -3 -3
5 5 4 6 6 6 6 7 7 7 7 7 7 7 6 5 4 5 5 5 5 5 5 5 5 5 4 4 3 3 3 2 2 1 0 0 -0 -1 -1 -1 -2 -3 -3 -4
4 4 5 6 6 6 6 7 7 7 7 7 6 6 5 5 5 5 4 4 5 5 5 4 4 3 3 3 3 3 2 2 1 0 -0 -0 -1 -1 -2 -3 -3 -3 -4 -5
3 4 4 5 6 6 6 6 6 7 6 6 5 5 5 4 4 4 4 4 4 4 3 3 3 3 3 2 2 2 1 1 0 -0 -1 -1 -2 -2 -3 -3 -4 -5 -6 -6
2 3 5 6 6 6 5 6 6 6 6 5 4 4 4 4 4 4 4 3 3 2 2 2 2 2 2 2 1 1 0 -0 -1 -1 -1 -2 -2 -3 -4 -5 -5 -6 -7 -7
2 3 3 5 5 5 6 6 5 5 5 5 5 5 4 4 4 4 3 3 2 2 2 2 2 2 1 1 0 -0 -1 -1 -1 -2 -2 -3 -4 -5 -5 -6 -7 -7 -8 -8
3 4 4 4 5 5 5 5 5 5 5 5 4 4 4 4 4 4 3 2 2 2 2 1 1 1 0 0 -0 -1 -1 -2 -2 -3 -4 -5 -6 -6 -7 -7 -7 -8 -8 -9
3 3 4 3 4 5 4 5 5 5 5 4 4 4 3 3 3 3 3 2 2 2 1 1 1 0 -0 -1 -1 -2 -2 -3 -4 -5 -5 -6 -6 -7 -7 -8 -8 -9 -9 -9
2 3 3 3 4 4 4 4 4 4 4 4 4 3 3 3 3 3 2 2 2 1 1 0 0 -0 -1 -2 -2 -2 -3 -4 -5 -6 -6 -7 -7 -8 -8 -9 -9 -9 -10 -10
1 2 3 4 3 3 3 4 4 4 4 4 3 3 3 3 3 2 2 2 1 1 0 -0 -1 -1 -2 -2 -3 -3 -4 -5 -6 -6 -7 -8 -8 -8 -9 -9 -10 -10 -10 -11
1 1 2 2 2 3 2 3 3 4 4 4 3 3 3 2 2 2 1 1 1 0 0 -0 -1 -2 -2 -3 -5 -5 -6 -7 -7 -8 -8 -9 -9 -10 -10 -10 -10 -11 -11 -11
0 0 2 2 2 2 2 3 3 3 3 3 3 3 2 2 2 1 1 1 0 0 -0 -1 -2 -3 -4 -5 -6 -6 -7 -8 -9 -9 -9 -10 -10 -10 -11 -11 -11 -11 -11 -12
-0 -0 1 1 2 2 2 2 3 3 3 3 3 2 2 2 1 1 0 0 -0 -1 -1 -2 -3 -4 -4 -5 -6 -8 -10 -10 -10 -11 -11 -11 -11 -11 -11 -12 -12 -12 -12 -13
-1 0 1 1 1 1 1 2 2 2 2 2 2 2 1 1 1 1 0 0 -1 -1 -2 -3 -4 -5 -6 -8 -9 -12 -11 -11 -12 -12 -11 -11 -12 -12 -12 -12 -12 -13 -13 -13
-1 -0 0 1 1 1 1 1 1 1 2 2 2 1 1 1 1 1 0 -0 -1 -2 -4 -4 -6 -8 -10 -11 -10 -12 -12 -13 -13 -13 -12 -12 -12 -12 -13 -13 -13 -13 -14 -14
-1 0 0 -0 0 0 0 1 1 1 1 1 1 1 1 0 -0 -0 -1 -2 -3 -4 -5 -7 -8 -8 -9 -11 -12 -12 -13 -13 -14 -13 -13 -13 -13 -13 -13 -13 -14 -14 -14 -15
-1 -0 -0 -1 -1 -1 -0 -0 0 0 1 0 -0 0 -0 -1 -3 -4 -4 -5 -6 -8 -8 -8 -9 -10 -11 -12 -12 -13 -13 -14 -14 -14 -13 -14 -14 -14 -14 -14 -14 -15 -15 -16
-3 -2 -2 -2 -1 -1 -1 -1 -1 -1 -1 -2 -3 -3 -4 -5 -5 -6 -7 -8 -8 -9 -9 -10 -10 -12 -12 -13 -13 -13 -14 -14 -14 -14 -14 -14 -14 -15 -15 -15 -15 -16 -16 -17
-3 -3 -2 -2 -2 -2 -3 -3 -3 -4 -4 -4 -6 -6 -7 -7 -8 -9 -9 -9 -9 -10 -11 -12 -12 -12 -13 -13 -13 -14 -14 -14 -15 -15 -15 -15 -15 -15 -16 -16 -16 -17 -17 -18
-4 -4 -4 -4 -4 -4 -5 -5 -6 -6 -7 -7 -8 -9 -9 -10 -10 -10 -10 -10 -11 -12 -12 -12 -12 -13 -13 -14 -14 -14 -15 -15 -15 -15 -16 -16 -16 -16 -17 -17 -17 -18 -18 -19
-6 -6 -6 -6 -6 -7 -7 -7 -8 -9 -9 -10 -10 -10 -10 -10 -11 -11 -12 -12 -13 -13 -13 -13 -14 -14 -15 -15 -15 -16 -16 -16 -16 -16 -17 -17 -17 -17 -18 -18 -19 -19 -19 -20
-7 -7 -8 -8 -9 -9 -9 -10 -10 -10 -11 -11 -11 -11 -12 -12 -12 -13 -13 -13 -13 -14 -14 -14 -15 -15 -15 -16 -16 -16 -17 -17 -17 -18 -18 -18 -18 -19 -19 -20 -20 -20 -21 -21
-9 -9 -9 -10 -10 -10 -11 -11 -11 -11 -11 -12 -12 -12 -13 -13 -13 -13 -13 -14 -14 -14 -15 -15 -16 -16 -17 -17 -17 -18 -18 -19 -19 -19 -19 -20 -20 -20 -21 -21 -21 -22 -22 -23
-10 -10 -10 -11 -11 -11 -11 -12 -12 -12 -12 -13 -13 -13 -13 -14 -14 -14 -14 -15 -15 -16 -16 -16 -17 -17 -18 -18 -19 -19 -20 -20 -20 -20 -21 -21 -22 -22 -22 -22 -23 -23 -23 -24
-11 -11 -12 -12 -12 -12 -13 -13 -13 -13 -13 -14 -14 -14 -14 -15 -15 -15 -15 -16 -17 -17 -18 -18 -19 -19 -19 -20 -21 -21 -22 -22 -22 -22 -23 -23 -23 -23 -23 -24 -24 -24 -24 -24

GFSNGP_700_temp_063.txt.gz
Temp
5 6 6 6 6 7 7 7 6 7 5 7 7 7 7 7 7 7 7 6 6 6 6 6 6 6 5 5 5 4 3 4 4 4 4 3 3 3 3 3 2 2 1 1
5 5 6 6 6 7 7 7 7 7 6 7 8 7 8 7 7 7 7 6 6 6 6 6 6 6 6 6 5 5 4 4 4 4 4 3 3 3 3 2 2 2 1 1
4 5 5 5 6 6 6 7 7 6 7 7 8 8 8 8 7 7 7 6 6 5 5 5 6 6 5 5 5 5 5 4 4 4 3 3 3 3 2 2 2 1 1 -0
4 5 2 5 5 6 6 7 7 7 7 8 8 8 8 8 7 7 6 6 6 6 6 5 5 5 5 5 5 4 4 4 4 4 3 3 3 2 2 2 1 0 -0 -1
4 4 4 4 5 6 6 6 7 7 7 7 7 7 8 7 7 7 6 6 6 6 5 5 5 5 5 5 5 4 4 4 3 3 3 3 3 2 2 1 0 -0 -0 -1
1 2 2 4 5 5 6 6 6 7 7 7 7 7 7 7 6 6 6 6 6 5 4 4 4 4 4 4 4 4 4 3 3 2 3 2 2 1 0 -0 -0 -1 -2 -2
-1 -1 2 4 5 5 5 5 6 6 6 6 6 7 7 7 6 6 6 5 5 4 4 4 4 4 4 3 4 3 3 2 2 2 2 2 1 0 -0 -1 -1 -2 -2 -3
-1 -1 -1 3 4 4 3 4 5 5 6 6 6 6 6 6 6 5 5 5 4 4 4 4 4 3 3 3 3 2 2 2 2 2 1 0 -0 -0 -1 -1 -2 -2 -3 -3
1 0 2 3 3 4 3 3 4 5 5 5 5 5 5 5 5 5 4 4 4 4 3 3 3 3 3 2 2 2 2 2 1 1 0 -0 -1 -1 -1 -2 -3 -4 -4 -5
1 2 2 2 2 3 3 2 2 3 5 4 4 4 4 4 4 4 4 4 3 3 3 3 3 2 2 1 1 1 1 1 0 0 -1 -1 -1 -2 -3 -4 -4 -5 -6 -7
1 1 1 1 1 1 1 2 3 3 3 4 3 4 4 4 4 4 4 4 3 3 3 2 2 2 1 1 1 1 0 -0 -0 -1 -1 -2 -2 -3 -4 -5 -6 -7 -7 -8
2 1 -1 0 0 1 1 1 2 3 4 3 4 3 3 3 4 3 3 3 3 3 2 2 2 1 1 1 0 0 -0 -1 -1 -2 -2 -3 -4 -5 -6 -7 -8 -8 -9 -10
2 2 1 1 2 2 2 2 2 2 3 2 3 3 3 3 3 3 2 2 2 2 2 1 1 0 0 0 -0 -1 -1 -2 -3 -3 -4 -5 -5 -6 -8 -10 -11 -12 -12 -12
1 1 2 2 1 1 1 1 1 2 2 2 2 2 2 2 2 2 2 1 1 1 1 0 -0 -0 -0 -1 -1 -1 -2 -4 -4 -5 -5 -6 -7 -9 -12 -13 -13 -12 -12 -13
-0 -0 -0 0 0 0 0 1 1 1 1 1 1 1 1 1 2 1 1 1 1 1 -0 -1 -1 -2 -2 -2 -2 -3 -4 -5 -6 -7 -7 -9 -11 -14 -14 -12 -11 -11 -12 -12
-0 0 0 -0 -0 -0 -0 -0 1 1 1 1 1 1 0 -0 0 0 0 0 0 -0 -2 -2 -2 -3 -4 -5 -6 -6 -6 -7 -7 -8 -11 -12 -11 -11 -12 -12 -12 -12 -13 -13
-2 -1 -0 -1 -1 -1 -1 -1 -0 -0 -0 -0 0 0 0 -0 -0 -1 -1 -1 -1 -2 -3 -4 -4 -5 -5 -6 -7 -8 -8 -10 -12 -10 -10 -11 -12 -12 -12 -12 -13 -13 -13 -14
-2 -2 -2 -2 -2 -2 -1 -1 -1 -1 -1 -2 -2 -2 -2 -2 -2 -3 -2 -3 -3 -4 -5 -5 -6 -7 -8 -8 -9 -10 -10 -10 -10 -11 -12 -12 -12 -12 -13 -13 -13 -13 -14 -15
-3 -3 -3 -2 -2 -2 -2 -2 -2 -2 -2 -2 -2 -2 -3 -3 -3 -4 -4 -5 -6 -6 -7 -8 -9 -9 -9 -10 -10 -11 -11 -12 -12 -12 -13 -13 -13 -13 -13 -14 -14 -15 -15 -16
-3 -3 -3 -3 -3 -3 -3 -3 -3 -3 -3 -3 -4 -4 -4 -5 -6 -6 -7 -8 -8 -9 -9 -10 -11 -11 -12 -12 -12 -13 -13 -13 -13 -13 -13 -13 -14 -14 -15 -15 -16 -16 -16 -17
-5 -5 -5 -4 -4 -4 -4 -4 -4 -4 -4 -5 -6 -6 -8 -8 -8 -9 -10 -10 -11 -11 -12 -12 -12 -12 -13 -13 -13 -13 -13 -13 -13 -14 -14 -15 -15 -16 -16 -17 -17 -17 -17 -18
-6 -6 -6 -6 -6 -6 -6 -6 -7 -7 -8 -9 -9 -10 -10 -10 -11 -11 -11 -12 -12 -12 -13 -13 -13 -13 -13 -13 -13 -14 -14 -14 -15 -15 -15 -16 -17 -17 -18 -18 -18 -18 -19 -20
-8 -8 -8 -8 -8 -8 -8 -8 -9 -10 -10 -10 -10 -11 -11 -11 -12 -12 -12 -13 -13 -13 -13 -13 -13 -14 -14 -14 -14 -14 -15 -15 -16 -16 -17 -17 -18 -18 -19 -19 -20 -21 -21 -21
-9 -9 -9 -9 -10 -10 -10 -10 -11 -11 -11 -11 -12 -12 -12 -12 -12 -13 -13 -13 -13 -13 -13 -14 -14 -14 -15 -15 -15 -16 -16 -17 -17 -18 -19 -19 -20 -20 -21 -22 -22 -22 -23 -23
-10 -10 -11 -11 -11 -11 -11 -11 -12 -12 -12 -12 -13 -13 -13 -13 -13 -13 -13 -14 -14 -14 -14 -15 -15 -16 -16 -17 -17 -18 -18 -18 -19 -19 -20 -21 -21 -22 -23 -24 -24 -25 -25 -25
-12 -12 -12 -12 -12 -12 -12 -13 -13 -13 -13 -13 -13 -14 -14 -14 -14 -14 -15 -15 -15 -15 -16 -16 -16 -17 -17 -18 -18 -19 -19 -20 -20 -21 -22 -23 -24 -25 -25 -26 -26 -27 -27 -27
-13 -13 -13 -13 -13 -13 -13 -13 -14 -14 -14 -14 -14 -15 -15 -15 -15 -15 -15 -16 -16 -17 -17 -17 -18 -18 -18 -19 -19 -20 -21 -22 -22 -23 -24 -25 -26 -27 -28 -28 -28 -28 -28 -27

GFSNGP_700_temp_069.txt.gz
Temp
1 1 2 3 5 5 5 5 5 5 6 7 7 7 7 7 7 7 7 7 7 7 7 7 6 6 6 6 6 5 5 4 4 3 3 3 3 3 2 2 2 2 2 1
-0 2 3 3 4 5 6 6 5 5 6 6 7 6 7 7 7 7 7 7 7 7 7 7 7 6 6 6 6 5 5 4 4 3 3 3 3 3 3 2 2 2 2 2
-2 0 1 2 4 4 5 5 5 5 5 6 6 6 6 7 7 7 7 7 7 7 7 7 6 6 6 6 5 5 5 4 4 3 3 3 3 3 3 3 2 2 1 2
-1 -0 -1 2 3 4 4 5 5 4 5 6 6 6 6 7 7 7 7 7 7 7 7 7 6 6 6 5 5 5 4 4 3 3 3 3 3 3 3 2 2 1 1 1
-2 -1 0 1 2 3 3 4 4 5 5 5 6 6 6 7 7 7 7 7 7 7 7 7 6 6 6 5 5 4 4 3 2 2 3 3 3 3 2 2 1 1 1 1
-3 -3 -2 2 3 3 2 3 5 5 5 4 5 5 6 6 6 7 7 7 7 7 7 6 6 5 5 5 4 4 3 3 2 2 2 2 2 2 1 1 1 1 1 0
-3 -3 -1 1 2 2 -0 2 3 4 4 4 4 5 5 5 6 6 7 7 7 7 6 6 5 5 5 5 4 3 3 2 2 2 2 2 2 1 1 1 0 0 -0 -1
-3 -3 -2 0 1 1 -0 2 3 4 4 4 4 4 5 5 5 6 6 6 6 6 5 5 5 5 5 4 4 3 2 2 2 2 2 2 1 0 -0 0 -0 -1 -1 -2
-1 -0 0 0 1 1 -1 -1 2 3 3 3 3 4 4 5 5 6 6 6 5 5 5 4 4 4 4 4 3 2 2 2 2 2 2 1 0 0 -0 -1 -1 -2 -2 -3
-2 -0 -0 0 1 1 1 0 1 0 2 2 2 3 4 5 5 5 5 4 4 4 4 4 4 4 4 3 3 2 2 2 2 1 0 0 -0 -0 -1 -1 -2 -3 -4 -4
-2 -1 -0 -0 0 1 1 1 1 1 1 0 1 2 3 4 4 3 3 3 3 3 3 3 3 3 3 3 3 2 2 1 1 0 -0 -0 -1 -1 -2 -3 -3 -4 -4 -5
-3 -2 -2 -0 -0 0 1 1 1 1 0 0 0 1 1 2 2 2 2 2 2 2 2 3 3 2 2 2 2 2 1 1 -0 -1 -1 -2 -2 -2 -3 -4 -5 -5 -6 -6
-2 -2 -2 -1 -1 0 0 0 0 0 0 1 1 1 -1 -1 -0 0 1 2 2 2 1 2 1 2 1 1 1 0 0 -0 -1 -2 -2 -3 -3 -4 -5 -5 -6 -6 -6 -7
-3 -3 -2 -1 -1 0 1 1 0 0 0 0 -0 0 1 0 -1 -1 0 2 2 1 1 1 1 1 -0 -0 -2 -2 -3 -3 -3 -3 -4 -4 -5 -5 -5 -6 -6 -6 -7 -8
-4 -3 -3 -2 -1 -1 -1 -0 -0 -0 -1 -1 -1 -0 0 1 1 -0 -0 1 1 0 -0 -0 -1 -1 -1 -2 -2 -3 -4 -4 -4 -4 -4 -5 -5 -6 -7 -8 -8 -9 -10 -10
-4 -4 -4 -3 -2 -2 -2 -1 -1 -1 -1 -1 -1 -1 -1 -1 0 0 0 0 -0 -1 -1 -1 -2 -2 -2 -3 -3 -4 -5 -5 -5 -6 -7 -7 -8 -9 -9 -10 -10 -11 -12 -12
-4 -4 -3 -3 -3 -2 -2 -2 -2 -2 -2 -2 -2 -2 -1 -1 -1 -1 -1 -2 -2 -2 -2 -3 -3 -4 -4 -4 -4 -5 -6 -7 -8 -8 -9 -9 -9 -10 -10 -11 -12 -13 -13 -13
-4 -4 -3 -3 -3 -3 -3 -3 -3 -3 -3 -3 -3 -2 -2 -2 -2 -2 -3 -3 -3 -3 -3 -4 -4 -4 -5 -5 -6 -7 -8 -9 -9 -9 -10 -10 -11 -12 -12 -13 -13 -13 -14 -14
-5 -4 -3 -3 -3 -3 -3 -4 -4 -4 -4 -4 -3 -3 -3 -3 -3 -3 -3 -3 -4 -4 -4 -5 -6 -7 -9 -9 -9 -9 -9 -10 -10 -11 -12 -12 -12 -13 -13 -13 -14 -14 -15 -15
-5 -4 -4 -4 -4 -4 -5 -5 -5 -5 -5 -5 -5 -4 -4 -4 -4 -5 -5 -5 -6 -7 -8 -9 -9 -10 -10 -10 -10 -10 -11 -12 -12 -13 -13 -13 -14 -14 -14 -15 -15 -15 -15 -16
-6 -6 -6 -7 -7 -7 -7 -7 -7 -7 -7 -7 -7 -7 -7 -7 -8 -8 -9 -10 -10 -10 -10 -10 -10 -11 -12 -12 -12 -13 -13 -13 -13 -13 -14 -14 -14 -15 -15 -15 -16 -16 -16 -17
-8 -8 -8 -8 -9 -9 -9 -9 -9 -9 -9 -10 -10 -10 -10 -10 -10 -11 -11 -11 -11 -12 -12 -12 -12 -13 -13 -13 -13 -13 -13 -14 -14 -14 -15 -15 -15 -15 -16 -16 -16 -17 -18 -18
-10 -10 -10 -10 -10 -10 -10 -10 -10 -11 -11 -11 -11 -11 -12 -12 -12 -12 -12 -12 -12 -13 -13 -13 -13 -13 -13 -13 -14 -14 -14 -15 -15 -15 -15 -16 -16 -17 -17 -18 -18 -19 -20 -21
-11 -11 -11 -11 -11 -11 -11 -11 -11 -12 -12 -12 -13 -13 -13 -13 -13 -13 -13 -13 -13 -13 -13 -13 -14 -14 -14 -15 -15 -15 -15 -16 -16 -16 -17 -17 -18 -18 -19 -19 -20 -21 -22 -22
-13 -13 -13 -13 -13 -12 -12 -13 -13 -13 -13 -13 -13 -13 -13 -13 -13 -14 -14 -14 -14 -14 -14 -14 -15 -15 -15 -16 -16 -16 -17 -17 -17 -18 -18 -19 -19 -20 -20 -21 -22 -23 -24 -24
-14 -14 -14 -14 -14 -13 -13 -13 -14 -14 -14 -14 -14 -14 -14 -14 -14 -14 -15 -15 -15 -15 -16 -16 -16 -17 -17 -17 -17 -17 -18 -18 -18 -19 -20 -20 -21 -22 -22 -23 -24 -24 -25 -25
-14 -14 -14 -14 -14 -14 -14 -14 -14 -14 -14 -15 -15 -15 -15 -15 -16 -16 -16 -16 -16 -17 -17 -17 -17 -18 -18 -18 -18 -19 -19 -20 -20 -21 -21 -22 -22 -23 -24 -24 -24 -25 -25 -25

GFSNGP_700_temp_072.txt.gz
Temp
-2 -2 -0 1 2 3 3 4 4 4 5 5 6 6 7 7 6 7 7 7 7 7 7 7 7 6 6 6 6 6 6 5 5 4 3 3 3 3 2 2 1 1 0 1
-1 -1 -0 -0 1 2 3 3 3 4 4 5 6 6 6 6 6 6 7 7 7 7 7 7 7 7 6 6 6 5 5 5 5 4 4 3 3 3 3 2 2 2 1 2
-1 -0 -0 -0 1 1 2 2 3 3 4 5 5 6 6 6 6 6 6 7 6 7 7 7 7 7 6 6 6 5 5 5 5 4 4 3 3 3 2 2 2 2 2 2
-2 -1 -3 0 2 2 2 2 3 3 4 4 5 5 5 6 6 6 7 7 6 7 7 7 7 7 6 6 6 5 5 5 4 4 4 3 3 2 2 2 2 1 1 2
-3 -2 0 1 2 2 2 2 3 3 3 4 4 5 5 5 6 6 7 6 7 7 7 7 7 7 6 6 6 5 5 4 4 3 3 3 3 2 2 2 2 1 2 1
-3 -3 -4 1 1 2 2 2 3 3 3 3 3 4 5 5 5 6 6 6 7 7 7 7 7 7 6 6 6 5 5 4 3 3 3 2 2 2 2 2 2 2 2 1
-3 -4 -3 -1 1 1 -0 2 2 2 3 3 4 4 4 5 5 5 6 6 6 7 7 7 7 6 6 6 5 5 4 4 3 2 2 2 2 2 1 1 2 2 0 -0
-4 -4 -3 -0 0 -0 -0 -0 -0 2 2 2 2 3 4 4 4 5 5 5 6 6 7 7 6 6 6 5 5 5 4 3 2 2 2 2 2 2 1 1 0 0 -0 -0
-2 -1 -0 -0 -0 -1 -1 -1 -0 0 1 -0 -0 2 3 4 4 4 4 5 5 5 5 5 5 5 5 5 4 4 4 3 2 1 2 2 1 -0 -1 -1 -0 -0 -0 -1
-2 -2 -1 0 0 -1 -1 -0 -0 0 1 1 0 0 2 2 3 4 4 5 5 4 4 2 2 4 4 4 3 3 3 2 2 2 1 1 1 0 -1 -1 -1 -2 -2 -2
-3 -3 -2 -2 -2 -1 -1 -0 0 -0 -0 0 0 0 0 1 1 3 3 4 3 3 3 2 2 2 3 2 2 2 2 2 2 1 1 1 0 -1 -1 -2 -2 -2 -3 -4
-3 -3 -3 -2 -2 -2 -1 -1 -1 -0 -0 -0 0 -0 1 -0 0 1 1 2 2 2 2 2 1 0 1 1 1 0 1 0 0 0 -1 -2 -3 -3 -3 -3 -4 -4 -4 -5
-4 -3 -3 -2 -2 -2 -1 -1 -1 -1 0 0 -0 -0 -0 -1 -0 1 1 -0 -0 -0 -0 -0 0 -1 -1 -0 0 0 0 -0 -1 -1 -2 -4 -4 -4 -5 -4 -4 -5 -5 -6
-4 -4 -3 -3 -3 -2 -3 -3 -3 -1 -0 -0 -0 -0 -1 -1 -0 -0 0 -0 -1 -1 -1 -1 -1 -1 -1 -0 -1 -1 -1 -1 -2 -2 -3 -4 -5 -5 -5 -5 -6 -6 -7 -8
-5 -5 -5 -4 -3 -3 -4 -4 -3 -2 -1 -1 -1 -1 -1 -1 -1 -0 0 -0 -1 -0 -1 -2 -1 -2 -2 -2 -2 -2 -3 -3 -4 -5 -4 -5 -5 -6 -7 -8 -9 -9 -9 -10
-5 -5 -5 -4 -5 -4 -4 -3 -2 -2 -2 -2 -1 -1 -2 -1 -1 -1 -1 -1 -1 -1 -1 -1 -1 -2 -2 -2 -3 -3 -4 -4 -5 -5 -6 -7 -7 -8 -9 -9 -9 -10 -10 -11
-4 -5 -5 -5 -5 -4 -4 -3 -3 -2 -2 -2 -2 -2 -2 -2 -2 -2 -1 -1 -1 -2 -2 -2 -2 -2 -3 -3 -4 -5 -5 -5 -6 -7 -8 -8 -9 -9 -10 -10 -10 -11 -12 -13
-5 -4 -5 -5 -4 -4 -4 -4 -4 -4 -4 -4 -4 -4 -3 -3 -3 -3 -3 -2 -2 -3 -2 -2 -2 -3 -4 -4 -5 -5 -6 -7 -9 -9 -9 -10 -10 -10 -11 -12 -12 -13 -14 -14
-5 -5 -5 -5 -4 -4 -4 -5 -5 -5 -4 -4 -4 -4 -4 -4 -4 -3 -3 -3 -4 -4 -4 -5 -5 -5 -6 -8 -9 -9 -9 -10 -10 -10 -11 -11 -12 -12 -13 -13 -14 -14 -14 -15
-6 -6 -5 -5 -4 -4 -4 -5 -6 -6 -6 -6 -6 -6 -5 -4 -5 -6 -6 -6 -7 -7 -8 -9 -10 -10 -10 -10 -10 -10 -11 -11 -12 -12 -12 -13 -13 -14 -14 -14 -14 -15 -15 -16
-7 -7 -7 -7 -7 -7 -8 -8 -8 -8 -7 -8 -8 -8 -8 -8 -8 -9 -10 -10 -10 -10 -10 -11 -11 -11 -11 -12 -12 -12 -12 -13 -13 -13 -13 -14 -14 -14 -14 -15 -15 -16 -16 -17
-9 -9 -9 -9 -9 -9 -10 -10 -10 -10 -10 -11 -11 -11 -11 -10 -10 -11 -12 -12 -12 -12 -12 -13 -13 -13 -13 -13 -13 -13 -13 -13 -14 -14 -14 -14 -15 -15 -16 -16 -16 -17 -17 -18
-12 -12 -11 -11 -12 -11 -12 -12 -12 -12 -12 -12 -12 -13 -12 -12 -12 -13 -13 -13 -13 -13 -13 -13 -13 -13 -13 -13 -13 -14 -14 -14 -14 -15 -15 -15 -16 -16 -17 -17 -18 -19 -19 -20
-13 -13 -13 -13 -13 -13 -13 -13 -13 -13 -13 -13 -13 -13 -13 -13 -13 -13 -13 -13 -13 -13 -13 -13 -13 -14 -14 -14 -14 -15 -15 -15 -16 -16 -17 -17 -17 -18 -19 -19 -20 -20 -21 -21
-14 -14 -14 -14 -14 -13 -14 -14 -14 -14 -14 -14 -14 -14 -14 -14 -14 -14 -14 -14 -14 -14 -14 -14 -15 -15 -15 -16 -16 -16 -17 -17 -17 -18 -18 -18 -19 -20 -20 -20 -21 -21 -22 -23
-14 -14 -14 -14 -14 -14 -14 -14 -14 -15 -15 -15 -15 -15 -15 -15 -15 -15 -15 -15 -15 -16 -16 -16 -16 -17 -17 -17 -17 -18 -18 -18 -18 -19 -19 -20 -20 -21 -21 -22 -22 -23 -23 -24
-15 -15 -15 -15 -15 -15 -15 -16 -16 -15 -15 -15 -15 -15 -15 -15 -16 -16 -16 -16 -17 -17 -17 -17 -18 -18 -18 -18 -18 -19 -19 -19 -19 -20 -20 -21 -21 -22 -22 -23 -23 -24 -24 -24

GFSNGP_700_temp_075.txt.gz
Temp
-2 -1 -1 -1 -0 1 1 1 1 2 3 3 4 5 5 6 6 7 6 6 7 7 7 7 7 7 6 6 6 6 6 6 6 5 4 4 3 3 3 3 2 1 1 0
-2 -1 -1 -0 -0 1 2 2 2 2 2 3 4 5 5 5 6 6 7 7 7 6 7 7 7 7 6 6 6 6 6 6 6 5 4 4 4 3 3 3 3 2 1 1
-2 -1 -1 -1 1 1 1 2 2 2 2 2 3 4 4 5 6 6 6 6 6 6 7 6 7 7 7 6 6 6 6 6 5 5 5 4 4 4 3 3 3 3 2 2
-3 -2 -2 0 2 2 2 2 3 2 2 3 3 3 5 5 5 6 6 6 6 6 7 6 7 7 7 7 6 6 6 5 5 5 4 4 4 4 3 3 2 2 2 2
-4 -3 -1 -0 0 1 1 2 2 2 3 3 4 4 4 4 4 5 5 6 6 6 6 7 7 6 7 7 6 6 6 5 5 4 4 4 3 3 3 2 2 2 2 1
-4 -3 -2 0 1 0 1 1 1 1 1 1 2 3 3 4 4 4 4 5 6 6 6 7 7 7 7 7 7 6 6 5 5 4 4 3 3 3 2 2 2 2 2 2
-5 -5 -3 -1 -1 -0 -1 -0 -0 -0 -0 0 1 0 2 4 3 4 4 5 5 5 6 6 7 7 7 7 7 6 6 5 5 4 4 3 3 2 2 2 2 2 1 1
-5 -4 -3 -1 -2 -2 -2 -1 -1 -1 -0 -0 0 0 0 2 2 3 4 4 4 5 5 6 6 7 7 7 6 6 5 5 4 4 3 3 2 2 1 1 1 1 1 1
-3 -3 -2 -2 -2 -2 -2 -1 -1 -1 0 -1 -0 -0 0 1 1 1 3 4 4 4 5 5 6 6 6 6 6 5 4 4 4 4 3 3 2 2 1 1 2 1 1 -1
-3 -3 -2 -2 -2 -2 -1 -1 -0 -0 -0 0 -0 -1 -0 -0 0 0 0 2 3 4 5 4 5 5 5 5 4 4 3 4 3 3 3 2 2 1 1 -0 -1 -0 -1 -1
-4 -4 -3 -3 -3 -2 -2 -2 -2 -1 -0 0 -0 -0 -1 -1 1 1 0 -0 2 2 3 4 3 3 3 3 2 2 1 2 2 2 2 2 1 1 0 -1 -2 -1 -2 -2
-4 -4 -4 -3 -3 -3 -3 -2 -2 -1 -1 -1 -1 -1 -1 -1 -1 -1 -0 -0 0 0 0 1 2 2 2 1 1 1 0 1 1 1 1 1 1 0 -1 -2 -2 -2 -3 -4
-5 -5 -5 -4 -4 -4 -3 -3 -3 -3 -2 -1 -2 -1 -2 -2 -1 -1 -1 -1 -0 -1 -1 -0 0 -1 0 0 0 -0 -1 -1 -1 -1 -0 -1 -1 -2 -2 -3 -3 -4 -4 -5
-5 -6 -5 -5 -4 -4 -4 -4 -3 -3 -3 -3 -2 -2 -2 -1 -1 -1 -1 -1 -0 -1 -1 -1 -1 -1 -1 -1 -1 -1 -1 -2 -2 -2 -3 -3 -4 -4 -4 -5 -5 -5 -6 -7
-5 -6 -6 -5 -5 -5 -5 -4 -4 -4 -4 -4 -3 -3 -2 -2 -2 -1 -1 -1 -1 -1 -1 -1 -1 -2 -3 -3 -3 -3 -3 -3 -3 -3 -3 -4 -5 -6 -6 -6 -6 -6 -7 -8
-6 -6 -5 -5 -5 -5 -5 -5 -5 -4 -4 -4 -3 -2 -2 -2 -2 -2 -2 -1 -1 -1 -2 -2 -2 -2 -2 -2 -3 -4 -3 -4 -4 -5 -5 -5 -5 -6 -6 -7 -8 -9 -9 -9
-6 -6 -6 -5 -6 -5 -5 -5 -5 -5 -4 -4 -3 -3 -3 -3 -3 -3 -3 -2 -2 -2 -3 -2 -2 -2 -3 -3 -4 -4 -4 -5 -5 -5 -6 -7 -7 -8 -9 -9 -9 -10 -10 -11
-7 -6 -6 -6 -6 -6 -6 -5 -5 -5 -5 -4 -4 -5 -5 -5 -5 -4 -4 -4 -3 -3 -3 -3 -3 -4 -4 -5 -6 -7 -7 -8 -8 -8 -9 -9 -9 -10 -10 -10 -11 -11 -12 -12
-7 -7 -7 -6 -7 -6 -6 -6 -6 -6 -6 -6 -6 -5 -5 -5 -5 -5 -5 -5 -6 -6 -5 -6 -6 -7 -8 -8 -9 -9 -10 -10 -10 -10 -10 -10 -11 -11 -12 -12 -13 -13 -13 -14
-9 -8 -7 -7 -7 -7 -8 -8 -8 -8 -8 -8 -8 -7 -7 -7 -7 -8 -8 -8 -9 -9 -9 -9 -10 -10 -10 -11 -11 -11 -11 -11 -12 -12 -12 -12 -13 -13 -13 -13 -14 -14 -14 -15
-9 -9 -9 -9 -9 -9 -9 -9 -9 -9 -9 -9 -9 -10 -10 -10 -11 -11 -11 -12 -11 -11 -12 -12 -12 -12 -12 -12 -12 -12 -13 -13 -13 -13 -13 -13 -13 -14 -14 -14 -15 -15 -15 -16
-11 -11 -11 -11 -11 -11 -11 -11 -11 -11 -12 -12 -12 -12 -12 -12 -12 -13 -13 -13 -13 -13 -13 -13 -13 -13 -13 -13 -13 -13 -13 -13 -13 -13 -14 -14 -14 -15 -15 -16 -16 -17 -17 -17
-13 -13 -13 -13 -13 -13 -13 -13 -13 -13 -13 -13 -13 -13 -14 -14 -13 -13 -14 -13 -14 -14 -14 -14 -14 -14 -13 -13 -13 -13 -14 -14 -14 -15 -15 -16 -16 -17 -17 -17 -18 -18 -19 -19
-14 -14 -14 -14 -14 -14 -14 -14 -14 -14 -14 -14 -14 -14 -14 -14 -14 -14 -14 -15 -14 -14 -14 -14 -14 -14 -14 -14 -15 -15 -15 -16 -16 -17 -17 -17 -18 -18 -18 -19 -19 -20 -20 -21
-14 -14 -14 -15 -15 -14 -14 -14 -15 -15 -15 -15 -15 -15 -15 -14 -14 -14 -14 -15 -15 -15 -15 -15 -15 -16 -16 -16 -16 -17 -17 -17 -17 -18 -18 -18 -19 -19 -19 -20 -21 -21 -21 -22
-15 -15 -15 -15 -15 -15 -15 -15 -15 -16 -16 -16 -15 -15 -15 -15 -15 -15 -16 -16 -16 -16 -17 -17 -17 -17 -17 -17 -18 -18 -18 -18 -18 -19 -19 -19 -20 -20 -21 -21 -22 -22 -22 -23
-16 -16 -16 -16 -16 -16 -16 -17 -16 -16 -16 -16 -16 -16 -16 -16 -16 -17 -17 -17 -17 -18 -18 -18 -18 -18 -18 -19 -19 -19 -19 -20 -20 -20 -20 -21 -21 -21 -22 -22 -23 -23 -23 -24

GFSNGP_700_temp_078.txt.gz
Temp
-2 -1 -1 -0 0 1 1 1 1 3 3 4 4 4 4 5 5 6 6 6 7 7 7 7 7 7 7 7 7 6 6 6 6 6 5 4 4 4 4 3 3 3 2 2
-1 -1 -0 0 1 1 1 2 2 2 3 3 3 3 4 5 5 5 6 6 6 6 7 7 7 7 7 7 6 6 6 6 6 6 6 5 5 4 4 4 3 2 2 2
-1 -1 -0 -0 0 1 2 2 2 3 3 2 2 3 3 4 5 5 5 6 6 6 6 6 7 7 7 7 6 6 6 6 6 6 6 5 5 4 4 4 3 3 3 2
-1 -2 -1 1 1 2 2 2 2 2 2 1 2 3 3 4 4 5 5 5 5 6 6 6 6 6 7 6 6 6 6 6 6 6 6 5 5 5 4 4 4 3 3 3
-3 -1 0 0 1 1 1 1 1 1 -0 -0 0 1 2 4 3 4 5 5 5 5 6 6 6 6 6 6 6 6 6 6 6 6 5 5 5 5 4 4 4 3 3 2
-4 -2 -0 -0 -1 0 1 1 -1 -1 -1 -1 -1 1 1 2 3 3 3 4 5 5 5 6 6 6 7 7 7 7 6 6 6 5 5 5 5 4 4 4 3 3 3 2
-4 -3 -2 -2 -1 -0 -0 -1 -1 -2 -2 -2 -2 -1 -0 0 1 2 3 4 4 4 5 5 5 6 6 6 6 6 6 6 6 6 5 4 4 4 4 3 3 3 3 2
-5 -4 -3 -2 -2 -2 -2 -2 -2 -1 -1 -1 -1 -0 -0 0 -0 0 2 2 3 4 4 5 5 5 5 6 6 6 6 7 6 5 5 4 4 4 3 3 3 2 2 2
-3 -2 -3 -3 -3 -3 -2 -2 -2 -1 -0 -0 -0 -0 -0 -0 -0 -1 0 1 2 3 4 4 4 5 5 5 6 6 6 6 6 5 5 4 4 3 3 3 3 2 2 1
-4 -3 -3 -3 -3 -3 -2 -2 -2 -2 -1 -0 0 0 -0 -0 -1 -1 -1 0 1 2 2 4 4 4 5 5 5 6 5 5 5 5 4 4 3 3 2 3 2 2 2 1
-4 -4 -4 -3 -3 -3 -3 -3 -2 -3 -2 -2 -1 -0 0 -0 -2 -1 -1 -1 -0 -0 1 1 2 3 3 4 4 4 4 4 3 3 3 3 3 2 2 2 2 1 1 0
-4 -4 -4 -4 -4 -3 -3 -3 -3 -3 -3 -2 -2 -2 -1 -1 -1 -1 -2 -1 -1 -1 -1 -0 1 1 1 1 2 2 2 2 1 2 2 2 1 -1 -0 0 0 0 -0 -2
-5 -4 -4 -4 -4 -4 -4 -4 -4 -4 -4 -3 -3 -3 -3 -2 -2 -2 -2 -2 -1 -1 -1 -1 -1 -1 -1 -0 -1 -0 1 0 -0 -0 -0 -0 -1 -2 -2 -2 -2 -3 -3 -3
-5 -5 -5 -5 -5 -4 -5 -5 -4 -4 -4 -4 -3 -3 -3 -3 -3 -3 -3 -2 -2 -1 -1 -1 -1 -1 -2 -3 -2 -1 -2 -2 -2 -3 -3 -2 -3 -3 -3 -3 -4 -4 -4 -4
-6 -6 -6 -5 -6 -5 -6 -5 -5 -5 -5 -4 -4 -3 -4 -4 -3 -3 -3 -3 -2 -2 -1 -2 -2 -2 -3 -3 -2 -2 -3 -3 -3 -3 -4 -4 -4 -4 -4 -5 -5 -5 -5 -6
-6 -6 -6 -6 -6 -6 -6 -6 -6 -5 -5 -5 -5 -5 -4 -4 -4 -3 -3 -3 -2 -2 -2 -2 -2 -3 -3 -3 -3 -3 -3 -4 -4 -4 -4 -5 -5 -5 -5 -5 -5 -6 -7 -8
-6 -6 -6 -6 -6 -6 -6 -6 -7 -6 -6 -6 -5 -5 -5 -4 -5 -4 -4 -4 -4 -3 -3 -3 -3 -4 -3 -3 -4 -4 -5 -5 -5 -6 -6 -6 -6 -7 -8 -9 -9 -9 -9 -10
-7 -7 -7 -7 -7 -7 -6 -6 -7 -7 -7 -6 -6 -6 -6 -6 -5 -6 -5 -5 -5 -5 -4 -5 -4 -5 -5 -5 -6 -7 -7 -8 -8 -8 -9 -9 -10 -9 -10 -10 -10 -10 -10 -11
-7 -8 -8 -8 -8 -7 -7 -7 -7 -7 -8 -8 -8 -7 -7 -7 -7 -7 -7 -7 -7 -7 -7 -7 -7 -8 -9 -9 -9 -9 -10 -10 -10 -10 -10 -10 -10 -10 -11 -11 -12 -12 -12 -12
-8 -9 -9 -9 -9 -8 -8 -8 -7 -8 -9 -9 -9 -9 -9 -9 -9 -9 -10 -10 -10 -10 -10 -10 -11 -11 -11 -11 -11 -11 -11 -12 -12 -12 -12 -12 -12 -12 -12 -12 -12 -12 -13 -13
-10 -10 -10 -10 -10 -10 -10 -10 -10 -10 -10 -11 -11 -12 -12 -12 -12 -12 -12 -12 -12 -11 -12 -12 -13 -13 -13 -13 -12 -13 -12 -12 -12 -13 -13 -13 -13 -13 -13 -14 -14 -14 -15 -15
-12 -12 -12 -12 -12 -12 -11 -12 -12 -12 -12 -13 -13 -13 -13 -13 -13 -14 -13 -13 -13 -13 -13 -13 -13 -13 -13 -13 -13 -13 -13 -13 -13 -13 -13 -14 -14 -15 -15 -15 -16 -16 -16 -17
-14 -14 -14 -14 -14 -13 -13 -14 -14 -14 -14 -14 -14 -14 -14 -14 -14 -14 -14 -13 -13 -13 -13 -14 -13 -13 -13 -13 -14 -14 -14 -14 -15 -15 -15 -15 -16 -16 -16 -17 -17 -17 -17 -18
-15 -14 -15 -15 -15 -15 -15 -15 -15 -15 -15 -15 -15 -15 -15 -15 -15 -15 -15 -14 -14 -14 -14 -14 -14 -14 -14 -15 -15 -15 -15 -16 -16 -16 -17 -17 -17 -17 -17 -18 -18 -19 -19 -20
-16 -15 -15 -15 -16 -16 -15 -15 -16 -15 -15 -15 -16 -16 -16 -15 -15 -15 -15 -15 -15 -15 -15 -15 -15 -15 -16 -16 -16 -17 -17 -17 -17 -18 -18 -18 -18 -18 -19 -19 -19 -20 -20 -21
-16 -16 -16 -16 -16 -16 -16 -16 -15 -16 -16 -17 -17 -16 -15 -15 -15 -15 -16 -16 -16 -16 -17 -17 -17 -17 -17 -18 -18 -18 -18 -18 -19 -19 -19 -19 -19 -20 -20 -20 -20 -21 -21 -21
-17 -17 -17 -17 -16 -16 -16 -17 -17 -17 -17 -17 -17 -16 -17 -17 -17 -17 -17 -18 -18 -18 -18 -18 -18 -18 -18 -19 -19 -19 -19 -19 -19 -20 -20 -20 -20 -21 -21 -21 -21 -22 -22 -22

GFSNGP_700_temp_084.txt.gz
Temp
-1 -1 -1 -1 1 1 2 1 2 3 3 3 2 4 5 5 5 5 5 5 6 6 6 6 6 6 7 7 7 7 7 6 6 6 6 6 6 6 5 5 5 4 4 4
-1 0 1 1 0 1 0 0 3 3 3 4 4 4 5 5 4 4 4 4 5 5 6 6 5 6 6 6 7 7 7 7 6 6 6 6 6 5 5 5 5 5 4 4
-1 0 0 1 1 2 3 3 3 3 4 4 4 4 3 3 3 3 3 3 4 4 4 5 6 5 5 5 6 6 7 7 7 7 7 7 6 6 6 5 5 5 5 4
-1 -1 -1 1 3 2 2 3 3 4 2 1 3 2 2 2 3 2 2 3 3 3 4 4 5 6 5 4 4 6 6 6 7 6 6 6 6 6 6 6 6 5 5 5
-2 -1 0 1 2 2 3 3 3 2 1 1 1 2 2 1 2 1 0 1 1 1 4 4 4 5 5 5 5 3 5 6 6 6 6 6 6 6 6 6 6 6 5 5
-2 -2 -1 1 1 1 2 2 1 -0 -2 -0 0 2 0 1 0 1 0 -0 -0 -0 2 3 4 4 4 5 5 5 3 2 4 5 5 6 6 6 6 6 6 5 5 5
-4 -3 -1 0 0 1 2 -0 -2 -2 -2 -2 -0 1 1 0 -1 -1 -1 -0 -1 -1 2 1 2 3 4 4 5 5 4 4 4 5 5 5 5 5 5 4 4 4 5 5
-4 -3 -2 -1 -1 -0 -2 -2 -3 -3 -3 -2 -1 -1 -1 -0 -0 -1 -1 -1 -0 0 1 1 1 1 2 3 4 4 4 4 3 4 4 4 5 4 4 4 4 4 4 4
-3 -3 -2 -2 -2 -3 -3 -3 -3 -3 -3 -2 -2 -1 -1 -1 -0 -0 -0 0 0 0 0 0 1 1 2 2 2 3 3 3 4 2 2 3 2 3 4 3 3 2 2 2
-3 -4 -3 -3 -3 -3 -4 -4 -4 -3 -3 -2 -2 -2 -2 -1 -1 -1 -1 -1 -0 -0 -0 -0 -0 0 1 1 1 1 2 3 3 3 2 1 1 1 2 2 2 1 0 -1
-3 -4 -4 -4 -4 -4 -4 -3 -3 -3 -3 -3 -2 -2 -2 -2 -2 -2 -2 -2 -2 -1 -1 -1 -1 -1 -1 -0 -0 0 0 -0 0 1 2 2 1 -0 1 1 0 0 0 1
-4 -4 -5 -5 -5 -5 -4 -4 -3 -3 -3 -3 -3 -3 -3 -3 -3 -3 -3 -3 -3 -2 -2 -1 -1 -1 -1 -1 -1 -1 -1 -1 -2 -1 0 0 -0 -0 -0 -0 0 0 -0 -0
-5 -5 -5 -5 -4 -4 -4 -4 -4 -3 -4 -3 -3 -3 -3 -3 -3 -3 -3 -3 -3 -3 -2 -2 -2 -2 -2 -2 -2 -1 -3 -3 -3 -3 -3 -3 -3 -2 -1 -1 -1 -1 -3 0
-5 -5 -5 -5 -4 -4 -4 -4 -4 -4 -4 -4 -4 -3 -4 -4 -4 -4 -4 -4 -3 -4 -4 -3 -4 -3 -3 -2 -2 -2 -3 -3 -3 -4 -3 -4 -4 -4 -3 -3 -4 -4 -4 -3
-5 -5 -5 -4 -4 -4 -4 -4 -4 -4 -4 -4 -4 -4 -4 -4 -4 -4 -4 -4 -4 -4 -4 -4 -4 -4 -3 -3 -3 -3 -4 -4 -4 -4 -4 -4 -4 -5 -4 -4 -5 -4 -4 -5
-5 -5 -5 -5 -5 -5 -5 -5 -5 -5 -5 -5 -5 -5 -5 -5 -5 -5 -5 -5 -5 -5 -5 -4 -4 -4 -4 -4 -4 -4 -5 -5 -5 -4 -4 -5 -5 -6 -5 -6 -6 -7 -7 -8
-6 -6 -6 -6 -6 -5 -5 -5 -5 -5 -5 -5 -5 -6 -6 -6 -5 -5 -6 -6 -6 -6 -6 -6 -6 -6 -6 -6 -6 -7 -6 -7 -6 -7 -8 -8 -8 -8 -8 -9 -9 -9 -9 -10
-6 -6 -6 -6 -6 -6 -6 -6 -6 -6 -6 -6 -7 -7 -7 -7 -7 -6 -7 -7 -8 -8 -9 -9 -8 -9 -8 -8 -8 -8 -9 -9 -9 -10 -10 -10 -10 -10 -10 -10 -10 -11 -11 -11
-7 -7 -7 -7 -7 -7 -7 -7 -7 -7 -7 -8 -8 -8 -8 -8 -9 -9 -10 -10 -10 -10 -11 -11 -10 -11 -11 -11 -11 -11 -11 -11 -11 -11 -11 -11 -11 -11 -12 -11 -12 -12 -12 -12
-8 -8 -8 -8 -9 -9 -9 -9 -9 -9 -9 -10 -10 -10 -10 -11 -11 -11 -12 -12 -12 -12 -12 -12 -12 -13 -13 -13 -12 -12 -12 -12 -12 -12 -12 -12 -12 -12 -12 -12 -12 -12 -13 -13
-9 -10 -10 -11 -11 -11 -11 -11 -11 -12 -12 -12 -12 -12 -13 -13 -13 -14 -14 -13 -14 -13 -13 -13 -13 -13 -13 -13 -13 -13 -13 -13 -13 -13 -13 -13 -13 -13 -13 -13 -14 -14 -14 -14
-11 -12 -12 -12 -12 -13 -13 -13 -14 -14 -14 -14 -15 -15 -15 -15 -15 -15 -15 -15 -15 -14 -14 -14 -14 -14 -14 -14 -13 -13 -13 -13 -14 -14 -14 -14 -14 -15 -15 -15 -15 -15 -16 -16
-14 -14 -14 -14 -14 -15 -15 -15 -15 -15 -16 -16 -16 -16 -15 -15 -15 -15 -15 -15 -15 -15 -15 -15 -14 -14 -14 -14 -14 -14 -14 -14 -15 -15 -15 -15 -16 -16 -16 -16 -17 -17 -17 -17
-14 -15 -15 -15 -15 -15 -16 -16 -16 -16 -16 -16 -16 -15 -15 -15 -15 -15 -15 -16 -16 -16 -15 -15 -15 -15 -15 -15 -15 -15 -16 -16 -16 -16 -16 -17 -17 -17 -17 -17 -18 -18 -18 -18
-15 -15 -15 -15 -16 -16 -16 -16 -16 -16 -16 -16 -16 -16 -16 -16 -16 -17 -17 -16 -16 -16 -16 -16 -16 -16 -16 -16 -17 -17 -17 -17 -17 -17 -18 -18 -18 -18 -18 -18 -18 -19 -19 -19
-16 -16 -16 -16 -17 -17 -17 -17 -17 -17 -16 -16 -17 -17 -17 -17 -17 -17 -17 -17 -17 -17 -17 -17 -17 -17 -18 -18 -18 -18 -18 -18 -19 -19 -19 -19 -19 -19 -19 -19 -19 -20 -20 -20
-17 -17 -17 -17 -17 -17 -17 -17 -17 -17 -18 -18 -17 -17 -17 -17 -17 -18 -18 -18 -18 -18 -18 -18 -18 -18 -19 -19 -19 -19 -19 -19 -19 -19 -19 -19 -20 -20 -20 -20 -20 -21 -21 -21

GFSNGP_700_temp_087.txt.gz
Temp
-2 -1 -2 -2 -1 -2 -1 -1 -1 1 -0 1 0 0 2 2 3 3 4 5 5 5 5 5 4 4 5 5 6 6 6 7 7 7 6 6 6 6 5 5 5 5 5 4
-2 -0 -0 -2 -1 -2 -1 -1 -1 -1 -0 -0 1 0 1 0 3 4 4 4 5 5 5 5 5 5 5 4 4 5 5 6 6 7 6 6 6 5 5 5 5 5 5 4
-2 -1 -1 0 1 1 0 0 1 2 2 2 1 0 0 2 3 4 4 4 4 4 4 5 5 5 5 5 5 5 6 5 5 6 6 6 6 6 6 6 5 5 4 4
-3 -2 -2 1 1 2 2 1 2 2 2 2 1 0 1 2 2 3 2 2 2 3 4 4 4 4 4 3 4 4 5 4 4 4 5 5 5 6 6 6 6 5 5 5
-3 -2 -1 1 1 1 1 0 0 2 1 1 -1 -1 -0 0 1 0 1 1 0 0 2 2 3 4 4 4 3 3 4 4 5 5 5 4 4 5 6 6 6 6 5 5
-4 -3 -3 0 1 1 1 -0 -1 0 0 0 -0 -1 -1 -0 0 1 1 1 0 0 2 1 1 2 3 4 4 4 3 3 4 5 4 4 4 3 4 6 6 5 5 5
-4 -5 -2 -1 -0 0 1 -2 -2 -1 -0 -1 -1 -2 -2 -1 0 1 1 1 1 0 0 0 0 1 2 2 3 3 3 3 3 3 4 3 4 3 3 4 3 4 4 4
-5 -4 -4 -1 -1 -0 -2 -2 -2 -2 -1 -1 -1 -2 -1 -1 -0 -0 -0 -0 -0 0 0 0 0 -0 0 1 2 2 2 2 3 3 3 3 3 2 2 2 2 3 3 2
-4 -3 -3 -3 -2 -3 -3 -3 -3 -2 -2 -2 -1 -1 -1 -1 -1 -0 -0 -0 -0 0 0 0 0 -0 -0 -0 0 0 1 1 2 2 2 3 2 2 2 2 1 1 1 1
-3 -4 -3 -4 -3 -3 -3 -3 -3 -3 -3 -2 -2 -2 -1 -1 -1 -1 -1 -1 -1 -1 -1 -1 -1 -0 -0 -1 -1 -1 -0 -0 1 2 2 2 2 2 1 1 1 0 0 1
-4 -4 -4 -4 -5 -4 -4 -4 -5 -4 -3 -3 -3 -2 -2 -2 -2 -2 -2 -2 -1 -1 -2 -1 -1 -1 -1 -1 -1 -1 -1 -1 -0 0 0 -1 -0 0 -0 0 -0 -0 -0 -0
-5 -5 -5 -5 -5 -5 -5 -5 -4 -4 -3 -3 -3 -3 -3 -3 -3 -3 -3 -2 -2 -2 -2 -2 -2 -2 -2 -1 -2 -2 -2 -1 -1 -1 -1 -1 -1 -2 -2 -3 -1 -0 -0 -1
-6 -6 -6 -6 -7 -6 -4 -4 -4 -4 -4 -4 -4 -4 -3 -3 -3 -3 -3 -3 -3 -3 -3 -3 -3 -3 -3 -3 -3 -3 -3 -2 -2 -2 -2 -2 -3 -3 -3 -3 -3 -3 -3 -4
-6 -6 -7 -6 -5 -5 -5 -5 -5 -5 -5 -5 -4 -4 -4 -4 -4 -4 -4 -3 -3 -3 -4 -4 -4 -4 -4 -3 -3 -3 -3 -3 -4 -5 -4 -4 -4 -4 -4 -4 -4 -4 -4 -4
-6 -6 -6 -5 -5 -5 -5 -5 -5 -5 -5 -5 -5 -4 -4 -4 -4 -4 -4 -4 -4 -4 -4 -4 -4 -4 -4 -4 -4 -5 -5 -5 -5 -6 -6 -6 -6 -5 -6 -6 -6 -6 -7 -7
-6 -6 -6 -5 -5 -5 -5 -5 -5 -5 -5 -4 -5 -5 -5 -5 -5 -5 -5 -5 -5 -5 -5 -5 -6 -6 -6 -6 -6 -7 -7 -7 -7 -7 -7 -6 -7 -7 -8 -8 -9 -9 -9 -10
-6 -6 -6 -6 -6 -5 -5 -5 -5 -5 -5 -5 -5 -5 -6 -6 -6 -6 -6 -6 -6 -7 -7 -8 -8 -8 -8 -8 -8 -8 -8 -8 -9 -9 -9 -9 -9 -9 -9 -10 -10 -10 -10 -10
-7 -7 -6 -6 -6 -6 -6 -6 -6 -6 -6 -6 -7 -7 -8 -8 -8 -8 -8 -8 -9 -10 -10 -10 -10 -10 -10 -10 -10 -10 -11 -11 -11 -11 -11 -11 -11 -11 -11 -11 -11 -11 -12 -12
-8 -8 -7 -7 -7 -7 -7 -7 -7 -7 -7 -8 -8 -9 -9 -10 -10 -10 -11 -11 -11 -12 -12 -12 -12 -12 -12 -12 -12 -12 -12 -12 -13 -13 -12 -12 -12 -12 -12 -12 -12 -12 -12 -13
-8 -8 -8 -8 -8 -9 -9 -9 -9 -9 -9 -10 -10 -11 -11 -12 -12 -13 -13 -13 -13 -13 -13 -13 -13 -13 -13 -13 -13 -13 -13 -13 -13 -13 -13 -13 -13 -13 -13 -13 -13 -13 -13 -13
-9 -10 -10 -10 -11 -11 -11 -11 -12 -12 -12 -13 -13 -14 -14 -14 -14 -14 -14 -14 -14 -14 -14 -14 -14 -14 -14 -14 -13 -13 -14 -14 -14 -13 -13 -13 -13 -13 -14 -14 -14 -14 -14 -15
-11 -12 -12 -12 -13 -13 -13 -13 -14 -14 -15 -15 -15 -15 -15 -15 -15 -15 -15 -15 -15 -15 -15 -14 -14 -15 -15 -15 -14 -14 -14 -14 -14 -14 -14 -14 -15 -15 -15 -15 -15 -15 -16 -16
-13 -13 -13 -14 -14 -14 -15 -15 -15 -16 -16 -16 -16 -16 -16 -16 -16 -15 -15 -15 -15 -15 -15 -16 -16 -16 -15 -15 -15 -15 -15 -15 -15 -15 -16 -16 -16 -16 -16 -17 -17 -17 -17 -17
-15 -15 -15 -15 -16 -16 -16 -16 -16 -16 -16 -16 -16 -16 -16 -16 -16 -16 -16 -16 -16 -16 -17 -17 -16 -16 -16 -16 -16 -16 -16 -16 -16 -17 -17 -17 -17 -17 -17 -17 -18 -18 -18 -18
-16 -16 -16 -17 -17 -17 -17 -17 -17 -17 -17 -17 -17 -17 -17 -17 -17 -17 -17 -17 -17 -17 -17 -17 -17 -17 -17 -17 -17 -17 -17 -17 -18 -18 -18 -18 -18 -18 -18 -18 -19 -19 -19 -19
-17 -17 -17 -17 -18 -18 -17 -17 -17 -17 -17 -18 -18 -18 -18 -18 -17 -17 -17 -17 -17 -18 -18 -18 -18 -18 -18 -18 -18 -18 -18 -18 -18 -19 -19 -19 -19 -19 -19 -19 -20 -20 -20 -20
-18 -18 -18 -18 -18 -18 -18 -18 -18 -18 -18 -18 -18 -18 -18 -18 -18 -18 -18 -19 -19 -19 -19 -19 -19 -19 -19 -19 -19 -19 -19 -19 -19 -19 -20 -20 -20 -20 -20 -20 -20 -21 -21 -21

GFSNGP_700_temp_090.txt.gz
Temp
-3 -3 -2 -2 -2 -2 -2 -2 -1 -1 -1 0 -1 -0 -0 0 1 2 4 4 5 5 5 5 5 5 5 5 5 5 4 5 6 5 6 6 6 6 6 5 5 5 5 5
-3 -3 -4 -2 -2 -2 -1 -2 -2 -2 -1 -1 -0 -1 -0 -0 -0 0 3 3 4 4 4 4 4 4 5 4 5 5 5 5 4 4 5 5 5 6 5 5 5 5 5 4
-3 -2 -4 -1 0 0 -0 -2 -0 -2 -1 -1 -1 -1 -1 -1 -1 1 1 2 3 2 3 3 4 4 4 4 5 5 5 4 5 5 4 4 4 4 5 5 4 5 5 4
-4 -4 -3 -1 0 0 -2 -1 -1 -1 -1 -1 -1 -2 -1 -1 -1 1 2 3 3 2 3 3 4 4 4 4 4 4 5 5 4 4 5 4 4 5 4 4 4 5 5 5
-4 -4 -3 -1 -1 -2 -1 -2 -1 -1 -1 -1 0 -1 -0 -1 -0 0 1 1 1 1 2 2 2 2 2 3 3 3 3 4 4 3 4 4 4 4 4 4 4 4 4 4
-5 -4 -5 -1 -1 -0 -1 -1 -1 -2 -2 -1 -1 -1 -0 -1 -1 -0 0 0 1 1 1 1 1 2 2 2 2 2 2 2 3 3 3 3 3 3 3 3 3 3 3 3
-6 -5 -4 -2 -2 -1 -2 -2 -2 -2 -1 -1 -0 -0 -0 -1 -2 -1 -0 -0 -0 -0 0 0 0 1 1 1 1 2 2 2 2 2 2 3 3 3 3 3 3 3 2 1
-6 -5 -5 -2 -2 -2 -3 -3 -2 -2 -1 -1 -1 -1 -1 -1 -2 -1 -1 -1 -0 -0 0 0 0 0 0 0 1 1 1 1 2 2 2 2 2 3 3 2 2 2 2 2
-5 -5 -5 -4 -3 -3 -4 -3 -3 -3 -2 -2 -2 -2 -2 -1 -1 -1 -1 -1 -1 -1 -0 -0 0 0 -0 -0 -1 -1 -0 0 1 1 1 1 1 2 2 2 2 1 1 1
-5 -5 -5 -4 -4 -4 -3 -3 -3 -3 -5 -4 -3 -2 -2 -1 -1 -1 -1 -1 -1 -1 -1 -0 -0 -0 -0 -0 -1 -1 -1 -1 -1 -1 -0 -0 0 1 1 1 1 0 0 0
-5 -4 -5 -5 -5 -4 -4 -4 -5 -5 -6 -3 -3 -3 -2 -2 -2 -1 -1 -1 -1 -1 -1 -1 -1 -1 -1 -1 -1 -1 -1 -1 -1 -1 -1 -1 -1 -1 -0 -0 -1 -1 -1 -1
-6 -5 -5 -5 -5 -5 -5 -6 -6 -4 -4 -3 -3 -3 -3 -2 -2 -2 -2 -2 -1 -1 -1 -1 -1 -2 -2 -2 -2 -2 -2 -2 -2 -2 -2 -2 -2 -2 -2 -1 -2 -2 -2 -3
-6 -6 -6 -6 -7 -7 -7 -6 -5 -4 -3 -3 -4 -3 -3 -3 -3 -3 -3 -3 -3 -2 -2 -2 -2 -2 -2 -2 -3 -3 -3 -3 -2 -2 -3 -3 -2 -2 -2 -2 -2 -3 -3 -3
-6 -6 -7 -7 -7 -7 -6 -5 -5 -5 -4 -4 -4 -4 -4 -4 -4 -3 -3 -3 -3 -3 -3 -3 -3 -3 -3 -3 -3 -3 -3 -3 -3 -4 -5 -6 -6 -5 -3 -4 -4 -4 -4 -4
-7 -7 -7 -7 -6 -6 -6 -6 -5 -5 -5 -5 -4 -4 -5 -5 -5 -4 -4 -4 -4 -4 -4 -4 -4 -4 -3 -3 -4 -4 -5 -6 -6 -7 -7 -7 -8 -8 -7 -7 -6 -6 -7 -7
-7 -7 -7 -7 -7 -7 -7 -6 -6 -5 -5 -5 -5 -5 -5 -5 -5 -5 -5 -5 -5 -5 -5 -5 -5 -5 -5 -6 -7 -7 -8 -7 -7 -7 -8 -8 -8 -8 -9 -9 -9 -9 -9 -10
-8 -8 -8 -8 -7 -7 -7 -6 -7 -6 -6 -6 -6 -6 -6 -6 -7 -7 -7 -7 -7 -7 -7 -7 -8 -8 -8 -9 -9 -9 -9 -9 -10 -9 -10 -10 -11 -11 -11 -11 -11 -11 -11 -11
-7 -7 -7 -8 -8 -7 -7 -7 -7 -7 -7 -7 -7 -7 -8 -8 -8 -9 -9 -9 -9 -10 -10 -10 -11 -11 -10 -10 -11 -11 -11 -11 -12 -11 -11 -12 -12 -12 -12 -13 -13 -13 -13 -13
-8 -8 -8 -8 -8 -8 -8 -8 -8 -8 -9 -9 -9 -9 -10 -10 -11 -11 -11 -12 -12 -12 -12 -12 -12 -12 -12 -12 -13 -13 -13 -13 -13 -13 -13 -13 -13 -13 -13 -14 -14 -14 -14 -13
-9 -9 -9 -9 -9 -10 -10 -10 -10 -10 -11 -11 -12 -12 -13 -13 -13 -13 -13 -13 -13 -14 -14 -14 -14 -14 -14 -14 -14 -14 -14 -14 -14 -14 -13 -14 -14 -15 -14 -14 -14 -14 -14 -14
-10 -11 -11 -11 -11 -12 -12 -12 -12 -13 -13 -13 -14 -14 -15 -15 -15 -15 -15 -15 -15 -15 -15 -15 -15 -15 -15 -15 -14 -14 -14 -15 -15 -15 -14 -14 -14 -14 -14 -14 -15 -15 -15 -15
-12 -12 -12 -13 -13 -13 -13 -14 -14 -15 -15 -15 -16 -16 -16 -16 -16 -16 -16 -16 -16 -16 -15 -15 -15 -15 -15 -16 -16 -16 -15 -15 -15 -15 -15 -15 -15 -15 -16 -16 -16 -16 -16 -16
-13 -14 -14 -14 -14 -15 -15 -15 -16 -16 -16 -16 -17 -17 -17 -17 -17 -16 -16 -16 -16 -16 -16 -16 -16 -17 -17 -17 -17 -16 -16 -16 -16 -16 -16 -16 -16 -16 -17 -17 -17 -17 -17 -18
-14 -15 -15 -15 -16 -16 -16 -16 -17 -17 -17 -17 -17 -17 -17 -17 -17 -17 -17 -17 -17 -17 -17 -17 -18 -18 -18 -17 -17 -17 -17 -17 -17 -17 -17 -17 -17 -18 -18 -18 -18 -18 -19 -19
-16 -16 -16 -17 -17 -17 -17 -18 -18 -18 -18 -18 -17 -17 -17 -18 -18 -18 -18 -18 -18 -18 -18 -18 -18 -18 -18 -18 -18 -18 -18 -18 -18 -18 -18 -18 -19 -19 -19 -19 -19 -19 -19 -19
-17 -17 -18 -18 -18 -18 -18 -18 -18 -18 -18 -18 -18 -19 -19 -19 -19 -18 -18 -18 -18 -18 -19 -19 -19 -19 -19 -19 -19 -19 -19 -19 -19 -19 -19 -19 -19 -19 -20 -20 -20 -20 -20 -20
-18 -18 -19 -19 -19 -19 -19 -19 -19 -19 -19 -19 -19 -19 -19 -19 -19 -19 -19 -20 -20 -20 -20 -20 -19 -20 -20 -20 -20 -20 -20 -20 -20 -20 -20 -20 -20 -20 -20 -20 -20 -21 -21 -21

GFSNGP_700_temp_096.txt.gz
Temp
-3 -3 -3 -3 -2 -3 -3 -3 -3 -2 -2 -1 -1 -1 0 0 -1 0 0 3 4 5 6 7 7 6 5 4 4 4 4 4 4 5 5 5 5 5 4 4 4 3 3 3
-4 -4 -4 -4 -3 -3 -2 -2 -2 -3 -2 -2 -2 -1 -0 -0 -1 -0 -1 -0 1 2 4 4 4 4 3 3 2 2 3 4 4 4 4 4 4 4 4 4 4 4 4 4
-4 -4 -4 -3 -3 -3 -2 -1 -2 -3 -1 -2 -2 -1 -1 -1 -1 -1 -1 -1 -1 0 1 2 2 1 1 2 2 3 3 4 4 4 4 4 4 4 3 3 3 2 2 2
-5 -5 -6 -3 -3 -3 -3 -2 -2 -2 -1 -2 -1 -1 -1 -1 -1 -1 -1 -1 -1 -2 -2 -2 -1 -1 1 1 3 3 4 4 4 4 4 4 4 3 3 3 3 3 2 2
-5 -5 -5 -3 -4 -3 -4 -1 -1 -2 -2 -2 -2 -2 -2 -2 -2 -2 -2 -2 -2 -2 -3 -3 -1 0 1 1 2 3 3 4 4 4 4 4 3 3 3 3 3 3 2 1
-6 -6 -7 -3 -3 -3 -3 -3 -2 -2 -2 -3 -3 -2 -2 -3 -2 -2 -2 -3 -3 -3 -3 -3 -1 -0 0 0 1 1 2 2 2 2 2 3 3 3 3 3 3 2 1 1
-6 -6 -6 -4 -4 -3 -4 -3 -3 -3 -2 -3 -3 -3 -3 -3 -2 -2 -2 -2 -2 -2 -2 -1 -1 -0 -0 0 0 1 1 1 1 0 1 1 1 2 2 2 2 3 2 2
-7 -7 -7 -5 -5 -4 -4 -3 -3 -3 -3 -3 -3 -3 -3 -3 -3 -3 -3 -3 -2 -2 -1 -1 -1 -1 -0 -0 0 0 0 0 0 0 0 0 0 0 1 1 1 1 1 1
-6 -6 -6 -5 -5 -6 -5 -5 -4 -4 -3 -4 -3 -4 -4 -5 -5 -4 -3 -3 -2 -2 -1 -1 -1 -1 -1 -1 -1 -0 -0 -0 0 0 -0 -0 -0 -0 -0 -0 0 0 0 1
-7 -6 -6 -6 -6 -6 -5 -5 -5 -4 -4 -4 -4 -5 -5 -4 -4 -5 -3 -3 -3 -2 -2 -1 -1 -1 -1 -1 -1 -1 -1 -1 -1 -1 -1 -1 -0 -0 -1 -1 -1 -1 -1 -1
-7 -7 -7 -6 -6 -5 -6 -5 -5 -5 -5 -5 -5 -5 -6 -5 -4 -4 -4 -3 -3 -3 -3 -3 -3 -2 -2 -2 -2 -2 -2 -2 -2 -2 -2 -2 -2 -2 -2 -2 -2 -2 -2 -2
-7 -7 -7 -7 -6 -6 -6 -6 -6 -6 -6 -6 -6 -6 -6 -5 -5 -4 -4 -4 -4 -4 -3 -3 -3 -3 -3 -3 -3 -3 -2 -3 -3 -3 -2 -2 -3 -2 -2 -2 -2 -2 -3 -3
-8 -8 -7 -7 -7 -7 -7 -6 -6 -7 -7 -7 -7 -6 -6 -5 -5 -5 -5 -4 -4 -4 -4 -4 -3 -3 -3 -3 -3 -3 -3 -3 -3 -3 -3 -3 -3 -3 -3 -4 -4 -4 -4 -4
-8 -8 -8 -7 -7 -7 -7 -7 -7 -6 -7 -7 -6 -6 -5 -5 -5 -5 -5 -5 -5 -5 -5 -4 -4 -4 -4 -4 -4 -4 -4 -4 -4 -5 -5 -5 -5 -5 -6 -7 -7 -7 -7 -7
-8 -8 -7 -7 -7 -7 -7 -7 -6 -6 -6 -6 -6 -6 -6 -6 -6 -6 -6 -6 -6 -6 -6 -6 -5 -5 -5 -5 -6 -6 -6 -7 -7 -7 -7 -7 -8 -8 -8 -8 -8 -8 -9 -9
-8 -7 -7 -7 -7 -7 -7 -7 -7 -7 -6 -6 -6 -6 -6 -6 -6 -6 -6 -6 -7 -7 -7 -7 -7 -7 -8 -8 -8 -8 -8 -8 -8 -8 -8 -8 -9 -9 -9 -10 -10 -10 -10 -11
-7 -8 -8 -7 -7 -7 -7 -7 -7 -7 -7 -7 -7 -7 -7 -7 -7 -8 -8 -8 -8 -9 -9 -9 -10 -10 -10 -10 -10 -10 -10 -10 -10 -10 -10 -10 -11 -11 -11 -12 -12 -12 -12 -12
-8 -8 -8 -7 -8 -8 -8 -8 -8 -8 -8 -8 -8 -8 -9 -9 -9 -10 -10 -10 -11 -11 -11 -11 -12 -12 -12 -12 -12 -12 -12 -12 -12 -12 -12 -13 -13 -13 -13 -13 -13 -13 -13 -13
-8 -8 -8 -8 -9 -9 -9 -9 -9 -9 -9 -9 -10 -10 -10 -11 -11 -11 -12 -12 -12 -13 -13 -13 -13 -13 -13 -13 -13 -13 -14 -14 -14 -14 -14 -14 -14 -14 -14 -14 -14 -14 -14 -14
-9 -10 -10 -10 -11 -11 -11 -11 -11 -11 -11 -11 -12 -12 -12 -12 -13 -13 -13 -14 -14 -14 -14 -15 -15 -15 -15 -15 -15 -15 -15 -15 -15 -15 -15 -15 -15 -15 -15 -15 -15 -15 -14 -14
-10 -11 -11 -12 -12 -12 -13 -13 -13 -14 -14 -14 -14 -14 -15 -15 -15 -15 -15 -16 -16 -16 -16 -16 -16 -16 -16 -16 -16 -16 -16 -16 -16 -16 -16 -16 -16 -16 -16 -15 -15 -15 -15 -15
-12 -12 -12 -12 -13 -13 -14 -14 -15 -15 -16 -16 -16 -16 -17 -17 -17 -17 -17 -17 -17 -17 -17 -17 -17 -17 -17 -17 -17 -17 -17 -17 -17 -17 -17 -17 -17 -17 -16 -16 -16 -16 -16 -16
-12 -13 -13 -14 -14 -15 -16 -16 -16 -17 -17 -17 -17 -17 -17 -17 -17 -17 -17 -17 -17 -17 -17 -18 -18 -18 -18 -18 -18 -18 -18 -18 -18 -18 -18 -17 -17 -17 -17 -17 -17 -17 -17 -18
-13 -13 -14 -15 -15 -16 -17 -17 -18 -18 -18 -18 -18 -18 -18 -18 -18 -18 -18 -18 -18 -18 -18 -19 -19 -19 -19 -19 -19 -18 -18 -18 -18 -18 -18 -18 -18 -18 -18 -18 -18 -19 -19 -19
-13 -14 -15 -16 -17 -18 -18 -19 -19 -19 -19 -19 -19 -19 -19 -19 -19 -19 -19 -19 -19 -19 -19 -19 -19 -19 -19 -19 -19 -19 -19 -19 -19 -19 -19 -19 -19 -19 -19 -19 -19 -19 -19 -19
-15 -16 -16 -17 -18 -18 -19 -19 -19 -19 -20 -20 -19 -19 -19 -19 -19 -19 -19 -20 -20 -20 -20 -20 -20 -20 -20 -20 -20 -20 -20 -20 -20 -20 -20 -20 -20 -20 -20 -20 -20 -20 -20 -20
-16 -17 -17 -18 -18 -19 -19 -19 -19 -20 -20 -20 -20 -20 -20 -20 -20 -20 -20 -20 -21 -21 -21 -21 -21 -21 -21 -21 -21 -21 -21 -21 -21 -21 -21 -21 -21 -21 -21 -21 -21 -21 -21 -21

GFSNGP_700_temp_099.txt.gz
Temp
-3 -3 -3 -3 -3 -3 -3 -3 -4 -2 -2 -0 -2 -2 -1 -1 -0 -0 -1 1 2 2 3 4 7 7 7 6 5 5 4 4 3 4 4 5 4 5 5 5 5 4 4 4
-4 -4 -4 -3 -3 -3 -3 -2 -2 -2 -1 -2 -3 -2 -2 -1 -1 -0 -1 -0 1 2 2 2 3 4 6 6 4 4 3 2 1 3 3 4 4 4 4 4 4 4 4 4
-4 -5 -4 -3 -3 -3 -3 -3 -3 -3 -2 -2 -2 -1 -2 -1 -1 -1 -1 -2 -2 -1 1 1 2 2 3 4 3 3 2 1 1 1 2 3 4 4 3 3 3 3 3 3
-5 -5 -5 -4 -4 -3 -4 -3 -3 -2 -2 -2 -3 -2 -1 -2 -1 -2 -2 -1 -2 -3 -1 -0 1 1 2 2 1 1 1 0 1 2 3 3 4 4 3 3 3 3 3 3
-6 -5 -5 -4 -4 -4 -4 -3 -3 -3 -2 -2 -3 -3 -2 -2 -2 -2 -2 -3 -2 -2 -3 -4 -3 -0 -0 -0 -2 -1 -0 -1 1 2 2 3 3 4 4 4 4 3 3 3
-6 -6 -5 -4 -4 -4 -4 -4 -3 -3 -3 -3 -2 -3 -3 -3 -3 -3 -3 -3 -3 -3 -3 -3 -4 -3 -2 -1 -0 0 0 0 1 2 2 2 2 3 3 2 3 3 3 3
-7 -6 -5 -5 -4 -4 -4 -4 -3 -3 -4 -3 -3 -3 -3 -4 -4 -3 -3 -3 -3 -3 -3 -3 -3 -3 -2 -1 -0 0 -0 0 0 1 1 1 1 1 1 1 2 2 2 2
-7 -7 -6 -5 -5 -5 -6 -6 -5 -4 -4 -4 -4 -3 -4 -4 -4 -3 -4 -4 -3 -3 -2 -2 -2 -1 -1 -1 -1 -0 -1 -1 -0 0 0 0 0 1 1 1 1 1 1 1
-7 -7 -7 -6 -6 -7 -7 -6 -6 -6 -5 -4 -5 -4 -5 -4 -4 -4 -4 -4 -3 -3 -3 -2 -2 -2 -2 -2 -1 -1 -1 -1 -1 -1 -1 -1 -1 -1 -0 0 0 0 1 1
-7 -7 -7 -7 -6 -7 -6 -6 -6 -6 -5 -5 -5 -5 -6 -5 -6 -5 -5 -5 -4 -3 -3 -3 -2 -2 -2 -2 -2 -2 -2 -2 -1 -1 -1 -1 -1 -1 -1 -1 -1 -1 -1 -1
-7 -8 -8 -7 -7 -7 -7 -6 -6 -6 -6 -6 -5 -6 -5 -6 -5 -5 -5 -5 -4 -4 -3 -3 -3 -3 -3 -3 -3 -2 -2 -2 -2 -2 -2 -2 -1 -1 -1 -1 -1 -2 -2 -2
-7 -8 -8 -7 -7 -7 -7 -7 -7 -7 -7 -7 -7 -7 -7 -7 -6 -6 -5 -5 -5 -5 -4 -4 -4 -4 -3 -3 -3 -3 -2 -2 -2 -2 -2 -2 -2 -2 -2 -2 -2 -2 -2 -2
-8 -8 -9 -8 -8 -7 -7 -7 -7 -7 -7 -7 -7 -7 -7 -6 -7 -6 -6 -5 -5 -5 -5 -5 -5 -4 -4 -4 -4 -4 -4 -3 -3 -3 -3 -3 -3 -3 -3 -3 -3 -3 -3 -4
-8 -9 -8 -8 -8 -7 -7 -7 -7 -6 -6 -6 -6 -6 -6 -6 -6 -6 -6 -5 -5 -5 -5 -5 -5 -5 -5 -5 -4 -4 -4 -4 -4 -4 -4 -5 -5 -5 -5 -5 -6 -6 -6 -6
-8 -8 -8 -8 -7 -7 -7 -7 -7 -7 -6 -6 -6 -6 -6 -7 -6 -6 -6 -6 -6 -6 -6 -6 -6 -6 -6 -6 -6 -6 -6 -6 -6 -6 -6 -7 -7 -7 -7 -8 -8 -8 -8 -9
-8 -8 -8 -8 -7 -7 -7 -7 -7 -7 -7 -7 -7 -7 -7 -7 -7 -7 -7 -7 -7 -7 -7 -7 -8 -8 -8 -8 -8 -8 -8 -8 -8 -8 -8 -9 -9 -9 -9 -9 -10 -10 -10 -11
-8 -8 -8 -8 -8 -8 -8 -8 -8 -8 -8 -8 -8 -8 -8 -8 -8 -8 -8 -8 -9 -9 -9 -9 -10 -10 -10 -10 -10 -10 -10 -10 -10 -10 -10 -11 -11 -11 -11 -12 -12 -13 -13 -13
-8 -8 -8 -8 -8 -8 -8 -8 -8 -8 -9 -9 -9 -9 -10 -10 -10 -10 -10 -10 -11 -11 -11 -11 -11 -11 -11 -12 -12 -12 -12 -12 -12 -12 -12 -13 -13 -14 -14 -14 -14 -14 -14 -14
-8 -8 -9 -8 -8 -9 -9 -9 -10 -10 -10 -10 -10 -11 -11 -11 -12 -12 -12 -12 -13 -13 -13 -13 -13 -14 -14 -14 -14 -14 -14 -14 -14 -14 -15 -15 -15 -15 -15 -15 -15 -15 -15 -15
-9 -9 -9 -10 -10 -10 -10 -11 -11 -11 -11 -11 -12 -12 -13 -13 -13 -14 -14 -14 -14 -15 -15 -15 -15 -15 -15 -15 -16 -16 -15 -15 -15 -16 -16 -16 -16 -16 -16 -16 -16 -17 -17 -16
-10 -10 -11 -11 -12 -12 -13 -13 -13 -13 -14 -14 -14 -14 -14 -15 -15 -15 -15 -16 -16 -16 -16 -16 -16 -16 -16 -16 -16 -17 -16 -16 -16 -17 -17 -17 -17 -17 -17 -17 -17 -17 -17 -16
-11 -12 -12 -13 -13 -14 -14 -15 -16 -16 -17 -17 -17 -17 -17 -17 -17 -17 -17 -17 -17 -17 -17 -17 -17 -17 -17 -17 -17 -17 -17 -17 -18 -18 -18 -18 -18 -18 -18 -18 -18 -17 -17 -17
-11 -12 -12 -13 -14 -14 -15 -16 -17 -18 -18 -18 -18 -18 -18 -18 -18 -18 -18 -18 -18 -18 -18 -18 -18 -18 -18 -18 -18 -19 -19 -19 -19 -19 -19 -19 -19 -19 -18 -18 -18 -18 -18 -19
-12 -12 -13 -14 -15 -16 -17 -17 -18 -18 -19 -19 -19 -19 -19 -19 -19 -19 -19 -19 -19 -19 -19 -19 -19 -19 -20 -20 -20 -20 -20 -20 -19 -19 -19 -19 -19 -19 -19 -19 -19 -19 -19 -20
-13 -14 -15 -16 -16 -17 -18 -18 -19 -19 -19 -20 -20 -20 -20 -20 -19 -19 -20 -19 -19 -20 -20 -20 -20 -20 -20 -20 -20 -20 -20 -20 -20 -20 -20 -20 -20 -20 -20 -20 -20 -20 -20 -20
-15 -15 -16 -17 -17 -18 -18 -19 -19 -19 -20 -20 -20 -20 -20 -20 -20 -20 -20 -20 -20 -21 -21 -21 -21 -21 -21 -21 -21 -21 -21 -21 -21 -21 -21 -21 -21 -21 -21 -21 -21 -21 -21 -21
-15 -16 -17 -17 -18 -18 -19 -19 -19 -20 -20 -20 -20 -21 -21 -21 -21 -21 -21 -21 -21 -22 -22 -22 -22 -22 -22 -22 -22 -22 -22 -22 -22 -22 -22 -22 -22 -22 -22 -22 -22 -22 -22 -22

GFSNGP_700_temp_102.txt.gz
Temp
-3 -3 -3 -2 -2 -2 -2 -2 -2 0 -0 -0 -1 -2 -2 -2 -1 -1 -1 -0 -0 1 2 3 5 7 7 7 6 5 5 5 4 4 4 5 5 5 5 5 5 5 5 4
-3 -3 -3 -3 -3 -2 -2 -2 -2 -1 -0 -2 -2 -2 -2 -1 -2 -1 -1 -0 -2 -1 2 2 2 4 4 4 4 4 4 4 4 3 3 4 4 4 4 4 4 4 4 4
-3 -4 -3 -2 -3 -3 -2 -2 -2 -2 -2 -2 -1 -2 -2 -1 -2 -1 -1 -1 -1 -2 -0 1 2 2 2 2 2 2 3 4 3 3 3 2 2 3 4 4 4 4 4 3
-3 -4 -2 -4 -4 -4 -3 -4 -4 -3 -3 -2 -2 -3 -3 -2 -2 -2 -2 -2 -2 -2 -3 -2 -0 1 2 1 2 2 2 2 2 2 1 1 1 1 2 3 3 3 3 2
-3 -2 -3 -4 -5 -5 -5 -4 -4 -4 -3 -3 -3 -3 -3 -3 -4 -3 -3 -3 -3 -3 -3 -4 -3 -2 -1 -1 -0 0 1 1 1 1 1 0 0 1 1 2 2 2 3 3
-4 -3 -3 -6 -5 -4 -4 -4 -4 -4 -4 -4 -3 -3 -3 -4 -4 -4 -3 -3 -4 -4 -4 -4 -4 -4 -4 -4 -3 -1 -0 0 -1 -0 -0 0 0 0 1 1 2 1 1 1
-5 -4 -4 -5 -5 -4 -4 -6 -5 -5 -5 -4 -4 -4 -4 -4 -4 -4 -4 -4 -4 -4 -4 -4 -4 -4 -4 -4 -4 -4 -2 -3 -2 -2 -2 -1 -0 0 0 1 1 1 1 1
-5 -5 -4 -5 -6 -6 -7 -7 -6 -6 -6 -5 -4 -4 -4 -4 -4 -4 -4 -4 -4 -4 -4 -4 -4 -4 -4 -4 -4 -4 -3 -2 -2 -2 -1 -1 -1 -1 -0 0 0 0 0 1
-6 -7 -7 -7 -6 -6 -7 -6 -6 -6 -6 -5 -5 -5 -5 -4 -5 -4 -4 -4 -4 -4 -3 -3 -3 -3 -3 -2 -2 -2 -2 -3 -3 -1 -1 -1 -1 -1 -1 -1 -1 -1 -1 -0
-7 -8 -8 -7 -7 -7 -7 -7 -7 -6 -6 -6 -6 -6 -6 -5 -5 -5 -5 -5 -5 -5 -4 -4 -4 -3 -3 -3 -3 -3 -2 -2 -2 -1 -1 -1 -1 -2 -1 -2 -1 -1 -1 -1
-8 -8 -8 -8 -7 -7 -7 -7 -7 -7 -7 -7 -7 -7 -6 -6 -6 -6 -6 -6 -5 -5 -5 -4 -4 -4 -3 -3 -3 -3 -3 -3 -3 -2 -2 -2 -2 -2 -2 -2 -2 -2 -2 -2
-8 -8 -8 -8 -8 -8 -7 -8 -8 -8 -7 -7 -7 -7 -7 -7 -7 -7 -6 -6 -5 -5 -5 -4 -4 -4 -4 -4 -3 -3 -3 -3 -3 -3 -3 -3 -3 -3 -3 -3 -2 -2 -2 -2
-8 -8 -8 -8 -8 -8 -8 -8 -7 -7 -7 -7 -7 -7 -6 -6 -6 -6 -6 -6 -5 -5 -5 -5 -4 -4 -4 -4 -4 -4 -4 -4 -4 -4 -4 -3 -3 -3 -3 -3 -3 -3 -3 -3
-8 -8 -8 -8 -8 -8 -8 -7 -7 -7 -7 -7 -7 -7 -7 -6 -6 -6 -6 -6 -6 -6 -6 -6 -6 -5 -5 -5 -5 -5 -5 -5 -5 -5 -5 -4 -4 -4 -4 -5 -4 -4 -5 -5
-8 -9 -8 -8 -8 -8 -7 -7 -7 -7 -7 -7 -7 -7 -7 -7 -7 -7 -7 -7 -7 -7 -7 -7 -7 -7 -7 -7 -6 -6 -6 -7 -7 -7 -7 -7 -6 -6 -6 -6 -7 -7 -7 -6
-8 -8 -8 -8 -8 -8 -7 -7 -7 -7 -8 -7 -7 -8 -8 -8 -8 -8 -8 -8 -8 -8 -8 -8 -8 -8 -8 -8 -8 -8 -8 -8 -8 -8 -8 -8 -8 -9 -8 -8 -8 -8 -9 -9
-8 -8 -8 -8 -8 -8 -8 -8 -8 -8 -8 -8 -8 -8 -9 -9 -9 -9 -9 -9 -9 -9 -9 -10 -10 -10 -10 -10 -10 -10 -10 -10 -10 -10 -10 -10 -10 -10 -10 -10 -10 -10 -11 -11
-9 -9 -9 -9 -9 -9 -9 -9 -9 -9 -9 -10 -10 -10 -10 -10 -11 -11 -11 -11 -11 -12 -12 -12 -12 -12 -12 -12 -12 -12 -12 -12 -12 -12 -12 -12 -12 -12 -12 -12 -12 -13 -13 -13
-9 -9 -9 -9 -9 -9 -9 -9 -9 -10 -10 -10 -11 -11 -12 -12 -13 -13 -13 -13 -13 -13 -13 -14 -14 -14 -14 -14 -14 -14 -14 -14 -14 -14 -14 -14 -14 -14 -14 -14 -15 -15 -15 -15
-9 -9 -9 -9 -10 -10 -10 -10 -10 -10 -11 -11 -12 -13 -13 -14 -14 -15 -15 -15 -15 -15 -15 -15 -15 -15 -16 -16 -16 -16 -16 -16 -16 -16 -16 -16 -16 -16 -16 -16 -16 -16 -16 -16
-10 -10 -10 -10 -10 -11 -11 -12 -12 -13 -13 -14 -14 -15 -15 -16 -16 -16 -16 -16 -16 -16 -16 -16 -16 -16 -16 -16 -16 -17 -17 -17 -17 -17 -17 -17 -17 -17 -17 -18 -18 -18 -17 -17
-10 -10 -11 -11 -12 -12 -13 -14 -14 -15 -16 -16 -17 -17 -17 -18 -18 -18 -18 -17 -17 -17 -17 -17 -17 -17 -17 -17 -17 -17 -18 -18 -18 -18 -18 -18 -18 -18 -18 -19 -19 -18 -18 -18
-11 -11 -12 -12 -12 -13 -14 -15 -15 -16 -17 -18 -18 -18 -19 -19 -19 -19 -19 -19 -18 -18 -18 -18 -18 -18 -18 -18 -18 -19 -19 -19 -19 -19 -19 -19 -19 -19 -19 -19 -19 -18 -18 -18
-11 -12 -12 -13 -14 -15 -16 -17 -17 -18 -18 -19 -19 -19 -19 -19 -19 -19 -19 -19 -19 -19 -19 -19 -19 -19 -19 -19 -20 -20 -20 -20 -20 -20 -20 -20 -19 -19 -19 -19 -19 -19 -19 -20
-12 -13 -14 -15 -16 -17 -17 -18 -18 -18 -19 -19 -19 -19 -20 -20 -20 -20 -20 -20 -20 -20 -20 -20 -20 -20 -20 -20 -20 -20 -20 -20 -20 -20 -20 -20 -20 -20 -20 -20 -20 -20 -21 -21
-14 -14 -15 -16 -16 -17 -18 -18 -18 -19 -19 -20 -20 -20 -20 -20 -21 -21 -21 -21 -21 -21 -21 -21 -21 -21 -21 -21 -21 -21 -21 -21 -21 -21 -21 -21 -21 -21 -21 -21 -21 -21 -21 -21
-14 -15 -15 -16 -17 -18 -18 -19 -19 -19 -20 -20 -20 -20 -21 -21 -21 -21 -21 -22 -22 -22 -22 -22 -22 -22 -22 -22 -22 -22 -22 -22 -22 -22 -22 -22 -22 -22 -22 -22 -22 -22 -22 -22

GFSNGP_700_temp_105.txt.gz
Temp
-2 -1 -0 -1 -1 -1 -1 -0 0 1 1 -2 -1 -1 -2 -2 -2 -1 -1 -1 -0 0 -0 2 2 3 4 5 6 6 6 5 6 5 5 5 5 5 5 5 5 5 5 5
-1 -1 -1 -1 -1 -1 -1 -0 0 1 -1 -3 -2 -2 -2 -2 -2 -2 -1 -1 -1 -1 -1 0 2 2 2 3 5 6 4 5 5 4 4 4 5 4 5 5 5 5 4 4
-2 -2 -1 -1 -1 -1 -1 -3 -3 -3 -3 -3 -2 -3 -3 -3 -3 -3 -2 -2 -2 -1 -2 -3 0 1 2 2 2 2 4 2 3 3 4 4 4 4 4 4 4 4 4 3
-2 -2 -1 -2 -2 -2 -3 -4 -4 -4 -4 -3 -3 -3 -4 -4 -4 -4 -3 -3 -3 -3 -2 -3 -3 -1 1 2 2 2 2 2 2 2 3 3 3 3 3 3 2 2 3 3
-1 -0 -2 -3 -4 -4 -3 -5 -4 -4 -4 -4 -4 -4 -4 -4 -4 -4 -4 -4 -4 -3 -3 -3 -3 -4 -3 -1 -0 1 2 2 2 2 2 2 2 2 1 1 0 2 2 3
-2 -1 -2 -5 -5 -5 -4 -5 -5 -5 -4 -4 -4 -4 -4 -4 -4 -4 -4 -4 -4 -4 -4 -4 -4 -4 -4 -4 -3 -0 0 -2 -0 1 1 1 1 1 0 1 1 1 1 1
-3 -1 -5 -5 -4 -4 -4 -6 -7 -6 -5 -5 -5 -5 -5 -5 -5 -4 -4 -4 -4 -5 -5 -4 -5 -5 -5 -4 -5 -4 -5 -4 -4 -2 -0 -1 -0 -0 -1 -1 -0 -0 0 1
-3 -3 -4 -5 -5 -5 -7 -7 -7 -7 -6 -5 -6 -5 -5 -5 -5 -4 -4 -4 -4 -5 -4 -4 -4 -3 -4 -5 -5 -5 -4 -5 -5 -5 -5 -5 -4 -4 -3 -3 -3 -3 -2 -2
-7 -7 -7 -6 -7 -7 -7 -7 -7 -6 -6 -6 -6 -6 -6 -6 -5 -5 -5 -4 -4 -4 -4 -4 -4 -4 -3 -3 -3 -3 -4 -5 -4 -5 -5 -4 -3 -3 -2 -2 -2 -1 -1 -1
-7 -7 -8 -7 -7 -7 -7 -7 -7 -7 -7 -6 -6 -6 -6 -6 -6 -6 -6 -5 -5 -5 -5 -5 -4 -4 -4 -4 -3 -4 -4 -4 -4 -3 -4 -5 -5 -4 -3 -2 -2 -2 -1 -1
-8 -8 -8 -7 -7 -7 -7 -7 -7 -7 -7 -7 -7 -7 -7 -7 -6 -6 -6 -6 -6 -5 -5 -4 -4 -5 -4 -4 -4 -4 -4 -3 -3 -3 -3 -3 -3 -2 -2 -2 -2 -2 -2 -2
-7 -8 -8 -8 -8 -8 -8 -8 -8 -8 -7 -7 -7 -7 -7 -6 -6 -6 -6 -6 -6 -5 -5 -5 -4 -4 -4 -5 -5 -4 -4 -4 -4 -4 -4 -4 -3 -3 -3 -3 -3 -2 -3 -3
-8 -8 -8 -8 -8 -8 -8 -8 -8 -7 -7 -7 -7 -7 -7 -6 -6 -6 -6 -6 -6 -6 -5 -5 -5 -5 -5 -5 -5 -5 -5 -5 -5 -4 -4 -4 -4 -4 -4 -4 -4 -4 -4 -4
-8 -8 -8 -8 -8 -8 -8 -8 -7 -7 -7 -7 -7 -7 -7 -6 -7 -7 -6 -6 -6 -6 -6 -6 -6 -6 -6 -6 -5 -6 -6 -6 -6 -6 -6 -6 -6 -5 -5 -5 -5 -5 -5 -5
-8 -8 -8 -8 -8 -8 -8 -8 -7 -7 -7 -7 -7 -7 -7 -7 -7 -7 -7 -7 -7 -7 -7 -7 -7 -7 -7 -7 -7 -7 -7 -7 -7 -7 -7 -7 -7 -7 -7 -7 -7 -7 -7 -7
-8 -8 -8 -8 -8 -8 -8 -8 -8 -8 -8 -8 -8 -8 -8 -8 -8 -8 -8 -8 -8 -8 -8 -9 -9 -9 -8 -8 -8 -8 -8 -8 -8 -9 -9 -9 -9 -9 -9 -9 -9 -9 -9 -9
-8 -8 -8 -8 -8 -8 -8 -8 -8 -8 -8 -8 -8 -9 -9 -9 -9 -9 -9 -10 -10 -10 -9 -10 -10 -10 -11 -11 -11 -10 -10 -10 -10 -10 -10 -11 -11 -11 -11 -11 -11 -11 -11 -11
-8 -9 -9 -8 -8 -9 -9 -9 -9 -9 -9 -10 -10 -10 -10 -10 -10 -10 -11 -11 -11 -11 -12 -12 -12 -12 -12 -12 -13 -13 -13 -12 -12 -12 -12 -13 -13 -13 -13 -13 -13 -13 -13 -13
-8 -9 -9 -9 -9 -10 -10 -10 -10 -10 -11 -11 -12 -12 -12 -12 -13 -13 -13 -13 -13 -13 -13 -13 -14 -14 -14 -14 -14 -14 -14 -15 -15 -15 -14 -14 -14 -15 -15 -15 -15 -15 -15 -15
-9 -9 -9 -10 -10 -10 -10 -10 -11 -11 -11 -12 -12 -13 -13 -14 -14 -15 -15 -15 -15 -15 -15 -16 -16 -16 -16 -16 -16 -15 -16 -16 -16 -16 -16 -16 -16 -16 -16 -16 -16 -16 -16 -16
-9 -9 -10 -10 -10 -11 -11 -11 -12 -12 -13 -13 -14 -14 -15 -16 -16 -16 -17 -17 -17 -17 -17 -17 -17 -17 -17 -17 -17 -17 -17 -17 -17 -17 -17 -17 -17 -17 -17 -17 -17 -18 -17 -17
-9 -10 -10 -10 -11 -11 -12 -12 -13 -13 -14 -15 -15 -16 -16 -17 -17 -18 -18 -18 -18 -18 -18 -18 -18 -18 -18 -18 -18 -18 -18 -18 -18 -18 -18 -18 -18 -18 -18 -18 -18 -18 -18 -18
-10 -11 -11 -11 -12 -12 -12 -13 -14 -15 -15 -16 -17 -17 -18 -18 -18 -18 -19 -19 -19 -19 -19 -19 -19 -19 -19 -19 -19 -19 -19 -19 -19 -19 -19 -19 -19 -19 -19 -19 -19 -19 -19 -19
-11 -11 -11 -12 -12 -13 -14 -15 -16 -17 -17 -17 -18 -18 -18 -19 -19 -19 -19 -19 -20 -20 -20 -19 -20 -20 -19 -19 -19 -19 -20 -20 -20 -20 -20 -20 -20 -20 -20 -20 -20 -19 -19 -19
-11 -12 -13 -13 -14 -15 -15 -16 -17 -17 -18 -18 -18 -18 -19 -19 -20 -20 -20 -20 -20 -20 -20 -20 -20 -20 -20 -20 -20 -20 -20 -20 -20 -20 -20 -20 -20 -20 -20 -20 -20 -20 -20 -20
-13 -13 -14 -14 -15 -15 -16 -17 -18 -18 -18 -19 -19 -19 -20 -20 -20 -20 -20 -21 -21 -21 -21 -21 -21 -21 -21 -21 -21 -21 -21 -21 -21 -21 -21 -21 -21 -21 -21 -21 -21 -21 -21 -21
-13 -14 -14 -14 -15 -16 -17 -18 -18 -19 -19 -19 -20 -20 -20 -20 -21 -21 -21 -21 -21 -22 -22 -22 -22 -22 -22 -22 -22 -22 -22 -22 -22 -22 -22 -22 -22 -22 -22 -22 -22 -22 -22 -22